GFSNE_sfc_temp_000.txt.gz
Temp
35 35 35 36 36 37 40 36 33 29 32 34 35 41 41 41 44 45 46 48 47 47 46 47 49 51 51 53 53 54 54 55 56 57 57 58 58 59
37 35 35 36 36 38 38 38 36 33 30 36 38 41 43 46 47 45 47 49 47 45 45 46 48 51 51 51 52 52 52 53 53 54 54 56 56 58
34 34 34 34 33 34 35 37 36 36 32 35 38 39 38 39 42 43 46 46 46 46 46 45 46 47 48 49 49 50 51 51 51 52 52 53 54 55
33 32 32 37 32 33 33 33 34 36 36 31 34 36 36 38 39 40 44 49 47 48 46 45 45 45 45 45 46 46 47 48 48 49 50 51 51 51
31 30 30 31 30 31 31 31 33 37 34 33 33 34 34 36 37 38 38 39 45 49 46 45 45 45 45 45 45 45 45 45 45 45 46 47 48 49
31 30 30 29 29 29 31 31 33 30 30 29 29 29 30 33 34 33 31 33 35 43 43 42 42 44 44 43 43 44 44 45 45 44 43 42 42 44
30 30 30 32 35 35 33 30 28 26 27 27 26 26 27 27 28 29 29 29 32 33 35 36 34 36 38 40 43 44 44 43 44 44 44 42 41 42
27 28 28 32 31 33 33 34 34 29 28 25 25 24 25 25 26 26 25 26 26 31 31 31 33 33 35 37 41 42 42 42 43 43 43 43 42 41
27 27 28 32 30 29 31 32 32 33 34 30 26 25 25 26 27 25 24 24 24 29 29 27 32 31 33 39 41 43 43 42 42 42 42 41 41 40
27 26 26 27 28 29 29 29 29 29 29 30 27 26 27 28 28 29 27 27 27 28 29 23 28 27 31 32 39 42 42 42 42 42 41 41 40 40
28 28 28 26 29 31 28 25 25 27 32 33 34 33 33 33 32 29 27 27 25 26 27 26 24 21 22 23 28 38 40 40 41 41 41 40 40 40
25 27 28 28 29 30 27 25 22 24 25 25 26 28 29 29 33 31 27 25 25 21 26 25 25 24 20 22 23 24 24 35 38 40 40 40 40 35
22 24 25 28 29 30 30 25 25 27 26 26 24 24 24 26 27 28 27 27 24 25 29 29 25 24 22 22 22 24 24 24 25 32 39 39 40 38
21 23 24 28 28 28 27 28 28 26 24 22 22 22 23 24 27 29 30 29 29 29 33 31 26 25 22 19 21 25 23 23 21 27 26 33 36 37
23 25 27 27 26 26 27 26 25 23 22 20 23 24 25 27 28 28 29 31 31 31 32 32 30 29 27 25 21 23 23 23 20 23 23 23 26 25
23 22 22 24 23 23 23 24 24 23 22 22 22 24 26 27 27 28 27 27 27 27 30 31 32 31 29 29 29 27 25 24 22 23 31 31 30 31
17 16 18 19 19 19 20 21 22 23 21 22 22 23 25 26 26 27 27 28 25 22 24 27 29 30 31 31 28 29 25 23 21 25 25 25 25 29
16 13 10 11 16 17 15 16 19 20 21 21 21 22 23 24 24 25 26 24 24 23 23 28 27 29 29 28 33 28 27 28 22 24 27 27 28 24
12 13 9 10 10 17 16 15 15 17 20 19 19 20 21 22 23 22 20 19 19 23 23 22 26 29 26 21 24 31 28 30 27 18 22 27 29 24
11 11 11 13 15 16 15 14 14 13 13 16 16 17 18 20 19 20 19 17 20 23 23 21 20 23 19 18 18 16 29 27 27 26 26 25 26 31
9 11 11 12 13 14 10 10 9 10 11 10 13 15 16 18 19 20 18 16 14 20 19 19 20 23 23 23 17 15 14 28 23 16 16 15 16 20
4 9 10 11 11 11 8 7 9 6 9 10 10 11 13 16 17 18 17 13 15 12 16 19 23 25 21 21 16 11 15 13 22 29 29 25 17 16
3 6 4 3 5 8 12 9 8 6 7 9 9 10 10 12 16 16 15 14 15 14 15 20 20 22 23 21 17 19 13 11 21 17 15 28 29 29

GFSNE_sfc_temp_003.txt.gz
Temp
33 33 32 33 32 32 33 34 32 26 28 32 32 38 41 41 42 42 43 49 48 46 47 48 50 50 50 52 53 53 54 54 56 57 58 58 58 59
34 32 32 32 32 31 30 32 32 31 28 32 34 38 42 44 45 40 41 48 47 45 45 46 46 48 49 50 51 52 53 53 54 54 55 56 57 58
32 31 31 32 30 29 29 30 30 30 28 32 37 40 40 39 41 40 41 40 41 46 46 45 45 45 47 48 49 50 51 51 52 52 53 54 55 56
31 30 31 35 29 28 28 29 29 31 30 28 32 34 37 39 38 39 42 44 40 46 45 45 43 44 45 45 46 46 47 49 49 50 50 52 53 53
31 30 29 29 27 27 28 28 29 32 31 29 30 32 34 35 36 38 37 36 41 45 43 42 42 43 44 45 44 45 45 45 45 46 47 47 49 50
31 30 29 28 27 27 28 29 31 29 27 27 29 29 29 31 32 31 30 33 32 40 41 40 41 42 43 44 43 44 45 46 45 45 43 42 43 45
30 30 29 31 34 33 31 27 29 28 28 28 26 27 27 26 27 27 28 27 31 31 31 34 35 36 38 40 43 44 43 44 44 45 44 43 41 42
27 28 28 31 31 32 32 32 31 28 26 27 26 26 26 26 26 25 24 24 24 30 29 29 33 33 33 36 41 42 42 43 43 43 44 43 41 40
27 27 27 31 29 28 29 31 31 32 32 29 26 26 27 26 26 24 23 24 24 27 28 25 29 31 32 37 40 42 42 42 42 42 42 42 41 40
26 25 25 26 27 28 27 27 27 28 29 30 28 27 27 27 27 28 26 25 25 27 28 21 25 25 32 33 38 41 42 41 42 41 41 41 40 40
26 26 27 26 28 30 27 26 26 27 32 32 32 32 32 32 31 28 24 26 25 27 26 25 23 21 20 23 31 39 40 40 40 40 40 40 40 39
23 25 27 27 29 30 26 24 22 25 25 25 25 27 29 28 31 29 26 25 25 22 25 25 25 23 19 20 21 23 23 35 38 39 40 40 40 33
22 22 24 27 29 29 28 25 25 27 26 24 25 24 24 25 26 27 26 25 23 23 27 26 25 23 21 21 21 22 23 23 24 31 37 39 40 37
20 22 23 28 28 27 26 27 27 25 23 22 22 23 23 23 26 27 27 27 27 27 28 29 22 24 22 17 20 22 21 21 20 26 25 34 37 38
20 24 26 26 25 25 26 25 23 22 21 20 21 22 24 27 28 28 29 30 30 30 31 31 29 27 24 24 21 20 21 22 18 21 26 26 24 23
18 18 19 22 20 20 20 22 22 21 21 21 21 23 25 26 26 28 27 27 27 27 30 31 31 31 29 29 29 25 22 27 19 21 23 30 30 31
10 9 14 14 16 17 16 17 19 20 19 20 20 21 23 25 26 27 27 27 23 23 24 24 29 31 31 31 28 29 29 25 23 22 25 23 22 25
11 7 9 7 10 15 14 12 14 15 17 18 18 19 20 22 24 25 25 24 24 24 24 28 29 28 29 27 32 30 28 27 28 28 26 26 23 23
6 4 4 9 9 15 14 13 11 11 14 15 16 16 18 20 21 22 22 22 22 22 20 20 24 28 26 23 23 31 28 29 28 26 27 27 23 23
8 5 3 6 12 14 14 12 11 9 5 11 13 13 14 16 18 19 20 16 18 21 21 21 20 23 19 16 19 19 28 27 27 27 26 26 28 30
8 9 4 5 9 12 9 8 4 4 4 3 6 11 12 14 16 18 17 17 16 20 19 17 18 22 21 22 18 13 13 27 24 17 19 18 16 23
5 8 9 6 4 5 4 5 8 6 7 7 5 6 7 11 14 15 13 7 13 12 15 18 22 23 20 19 14 9 15 16 23 27 28 25 16 14
5 7 4 -0 -2 -1 5 2 6 6 7 7 7 7 5 8 12 12 12 12 13 13 14 18 20 19 20 20 15 15 14 12 22 18 14 26 29 29

GFSNE_sfc_temp_006.txt.gz
Temp
34 34 32 33 32 31 32 31 28 24 27 32 32 38 40 41 43 42 40 44 47 46 46 47 48 49 51 52 52 53 55 55 56 58 59 59 59 60
34 33 32 32 31 31 30 30 30 27 24 32 34 37 40 43 45 43 41 44 44 45 45 45 45 46 48 49 50 51 52 53 54 56 57 57 58 59
32 32 32 31 30 30 29 29 29 28 25 29 34 37 36 38 41 42 42 41 40 44 45 44 43 43 44 46 47 49 51 52 52 53 55 56 57 58
32 31 31 34 29 29 28 28 28 29 27 25 30 32 34 37 38 39 41 43 39 44 43 43 43 43 43 43 44 46 47 48 49 50 51 53 55 55
31 30 30 29 27 27 27 27 28 30 30 28 28 31 33 34 35 38 38 38 41 43 42 41 42 42 42 43 44 45 46 46 45 46 47 48 49 50
31 30 29 29 28 27 28 28 29 27 28 29 28 28 30 34 32 32 32 35 35 40 40 39 40 41 41 41 42 44 44 45 45 44 43 43 44 46
29 30 30 31 34 33 31 28 27 27 27 27 27 29 28 28 29 30 30 31 32 34 34 36 37 37 39 40 42 44 44 44 44 44 44 42 42 43
29 28 28 30 30 31 30 31 30 27 25 25 26 26 28 28 28 29 28 27 28 33 32 32 35 36 37 38 41 42 42 43 44 44 44 43 41 41
26 26 26 30 28 27 28 30 30 30 30 27 25 26 27 29 30 27 26 26 27 31 32 30 32 32 36 39 40 42 42 42 42 42 42 41 41 40
25 25 25 25 26 28 27 27 28 29 30 30 29 28 29 29 30 30 29 28 28 29 31 26 30 30 34 35 38 41 41 41 42 41 41 41 41 41
26 26 26 25 28 30 27 25 26 28 32 32 32 32 32 32 31 28 25 25 25 28 29 29 29 28 28 32 34 38 40 40 40 40 40 40 40 39
24 25 26 27 29 30 26 24 22 26 27 28 28 29 29 29 30 30 28 25 25 24 29 27 28 28 26 28 29 31 32 34 38 39 40 40 40 40
22 22 24 26 29 29 29 24 25 26 25 25 26 26 26 26 27 28 28 26 24 25 30 30 28 28 27 27 29 30 31 33 34 37 37 39 40 39
19 21 21 27 27 27 26 27 26 24 22 22 22 23 24 25 28 28 28 28 29 28 30 31 27 28 27 25 26 30 31 30 31 34 34 34 36 38
19 22 25 25 24 23 24 25 23 21 21 20 20 22 24 26 28 29 30 30 30 30 30 30 29 29 28 27 27 27 29 32 28 32 30 31 34 33
17 16 16 21 17 19 19 19 19 20 19 19 20 22 25 26 26 28 28 28 27 28 31 31 30 30 28 29 30 29 29 29 29 29 29 31 31 32
9 6 10 14 15 17 17 17 16 17 17 18 18 19 21 24 26 28 28 28 26 26 28 29 31 31 31 30 28 30 29 29 31 29 29 28 30 31
10 4 0 1 10 14 15 14 13 12 14 16 17 18 18 19 23 25 26 25 25 26 26 27 28 28 29 30 32 30 30 30 30 30 29 28 30 31
7 5 -2 -1 4 14 15 14 13 12 11 13 14 15 16 18 20 21 22 23 23 25 25 26 26 28 26 24 26 31 29 29 30 29 30 28 29 31
9 6 4 4 8 12 14 13 12 10 8 8 10 12 13 16 17 18 19 19 21 23 23 25 25 25 25 24 24 26 29 28 28 28 27 28 30 31
9 10 6 6 9 9 3 5 7 8 7 5 7 8 9 13 16 17 15 13 15 20 19 21 23 23 25 25 24 25 23 26 27 27 26 26 25 27
8 10 11 9 7 6 -0 -3 3 7 9 9 7 6 7 9 12 12 13 13 15 16 17 21 24 25 25 24 22 19 22 23 25 27 28 28 26 23
9 9 8 4 1 0 6 2 2 2 6 9 9 10 7 9 11 12 12 14 15 15 16 17 20 23 23 23 22 22 21 20 24 24 25 26 29 29

GFSNE_sfc_temp_009.txt.gz
Temp
46 46 46 46 45 44 43 41 36 30 34 40 40 46 47 48 48 49 49 47 45 44 46 47 47 49 50 52 53 54 54 55 56 58 60 60 61 61
47 45 45 44 43 43 42 41 39 35 31 39 40 42 44 46 47 48 49 46 45 43 44 46 46 46 48 48 50 51 53 54 55 56 58 58 59 60
45 43 42 43 42 42 42 41 39 38 32 37 40 42 41 42 44 47 49 49 48 45 43 44 44 44 45 46 46 47 50 52 53 54 56 57 58 60
43 42 41 42 40 41 40 38 37 38 34 32 37 37 39 42 42 43 47 49 46 44 43 42 43 43 43 44 44 45 45 48 50 51 53 54 56 58
41 40 39 39 38 38 38 36 35 35 34 32 33 37 38 41 41 43 43 46 47 44 43 42 42 42 42 43 43 44 45 46 46 46 47 48 50 52
40 39 38 37 36 36 34 33 33 31 31 31 31 33 36 40 38 39 40 44 44 46 45 41 41 41 41 42 42 43 44 45 45 45 45 44 44 46
38 38 37 35 33 33 33 32 31 29 30 30 30 32 33 34 32 34 37 41 42 43 43 45 46 47 47 43 42 42 43 44 45 45 44 44 43 44
34 35 35 33 33 31 31 31 31 30 29 29 30 31 31 33 34 32 31 34 35 44 42 43 45 45 46 48 40 40 42 43 43 44 44 43 43 42
33 33 32 33 32 33 32 32 31 31 31 30 29 31 31 34 33 32 32 32 33 40 39 38 43 42 45 46 41 40 41 42 42 42 42 42 41 40
33 32 31 31 32 31 31 31 32 33 33 33 32 33 34 36 34 33 33 34 36 38 40 33 41 38 43 45 40 40 41 42 42 42 42 41 40 40
32 32 31 31 30 30 30 29 30 31 33 32 32 32 32 33 33 33 29 29 29 35 40 36 37 37 39 40 43 40 39 40 41 42 41 41 41 40
31 31 29 28 29 30 29 28 25 28 30 31 31 33 34 34 32 33 33 28 29 30 38 34 37 37 34 40 41 42 43 36 38 40 41 41 40 49
29 29 30 27 29 29 28 27 26 28 27 28 30 32 33 33 33 35 36 34 31 31 37 35 36 36 36 37 40 42 41 41 43 44 38 40 40 43
27 28 28 27 27 26 27 26 26 26 26 26 27 28 29 30 32 33 34 34 36 35 39 37 33 34 32 32 34 40 41 42 42 43 43 41 37 39
28 27 26 25 25 25 25 24 23 25 24 24 24 26 28 30 31 31 33 34 34 35 35 36 34 35 35 33 33 35 36 40 39 40 41 42 42 43
26 27 23 23 22 23 25 25 24 23 22 23 24 26 28 29 30 32 31 32 31 32 34 34 34 33 31 32 33 32 34 34 40 39 38 39 36 38
24 25 25 24 24 24 24 24 23 22 22 22 23 24 25 27 29 30 31 31 30 31 31 33 33 33 34 33 31 34 33 34 36 35 33 35 39 40
26 24 22 21 21 22 22 22 22 20 21 21 22 23 24 25 27 29 30 29 29 30 30 31 33 32 31 32 33 33 34 34 34 34 34 33 36 40
26 25 23 22 21 23 23 22 20 20 18 20 21 21 22 24 26 27 28 28 28 29 30 31 31 31 30 29 31 31 33 35 34 33 34 33 33 35
26 25 24 24 23 23 23 22 21 20 19 18 20 20 20 22 23 24 25 24 27 29 30 33 31 30 29 28 29 30 29 32 32 32 32 33 34 31
28 27 26 25 24 24 22 20 19 19 18 17 18 18 19 21 22 23 23 21 23 26 26 28 30 27 31 31 28 29 30 28 30 31 31 31 31 32
28 27 27 27 25 24 23 21 20 20 20 19 18 18 18 20 20 20 22 22 24 24 25 28 30 31 30 30 30 27 30 30 29 29 29 29 31 29
28 28 28 26 25 23 23 22 20 20 19 19 19 19 18 18 20 21 21 22 23 23 24 25 28 29 29 29 27 29 26 27 30 30 30 27 29 29

GFSNE_sfc_temp_012.txt.gz
Temp
52 52 52 52 52 51 50 48 41 34 38 45 45 51 51 51 50 50 50 48 47 45 44 44 47 48 49 50 53 54 54 55 56 58 59 61 62 62
53 51 51 51 51 50 50 48 46 41 37 44 46 48 49 50 50 49 50 47 47 44 43 43 45 46 46 47 49 51 51 52 55 56 57 59 60 60
51 50 49 50 49 49 49 47 45 44 38 43 45 47 45 45 46 47 50 50 51 45 43 43 43 43 44 44 45 47 48 49 50 54 55 58 59 60
49 49 48 49 47 47 47 45 44 44 38 35 40 40 41 43 45 44 46 51 48 47 42 41 42 43 42 42 43 44 45 46 47 48 52 54 55 58
48 46 46 45 44 45 44 43 41 39 38 36 36 38 40 42 41 43 44 45 49 47 42 41 43 42 42 42 43 44 45 45 45 45 47 48 49 52
47 46 45 43 42 41 40 39 38 37 37 35 34 35 38 41 41 39 39 43 45 48 48 44 42 44 43 42 43 43 43 45 45 45 44 44 45 47
45 44 43 39 35 35 36 36 35 34 32 33 33 34 34 36 37 39 37 40 41 43 46 47 48 47 49 45 44 41 41 44 45 45 44 43 43 44
42 42 42 38 38 33 33 33 33 32 30 31 32 30 32 35 37 36 33 34 34 41 42 43 47 46 47 49 39 39 39 41 44 44 44 43 43 43
41 40 39 40 37 37 35 34 34 33 32 32 30 31 32 36 36 36 35 35 34 39 37 38 45 43 48 51 41 39 38 39 43 42 42 42 42 42
40 39 38 38 37 33 33 35 37 38 38 37 35 35 35 36 35 36 35 35 37 40 42 34 42 41 44 47 41 40 38 36 40 41 41 41 41 41
38 38 36 36 32 30 32 32 34 36 36 34 34 33 33 33 34 35 32 31 30 37 43 38 40 39 41 43 45 40 39 37 36 39 41 42 41 41
37 37 33 31 29 30 29 29 28 31 31 32 34 35 35 36 33 36 34 30 31 32 41 38 39 39 35 44 44 45 44 39 37 38 41 42 41 50
34 35 36 30 29 29 28 29 27 29 29 30 32 34 36 36 37 37 37 35 31 33 37 40 38 38 38 39 43 44 45 43 44 42 39 40 41 42
31 34 32 29 28 27 28 26 26 27 29 28 29 30 32 32 34 36 37 37 39 36 41 39 36 36 34 35 37 43 43 45 45 47 47 44 39 39
32 31 27 27 28 30 28 26 27 30 27 26 27 28 30 32 34 34 36 38 38 38 39 40 38 38 37 35 35 38 39 42 42 43 44 45 45 45
33 33 30 26 28 29 31 31 30 29 27 26 27 29 31 32 32 34 33 34 33 34 37 37 37 36 34 36 36 35 38 37 42 42 42 42 44 44
28 31 32 31 31 31 31 30 30 29 27 27 27 27 29 30 31 33 33 32 32 33 33 35 36 35 36 35 32 35 35 34 38 38 39 38 41 43
30 30 30 29 29 29 29 29 30 27 27 26 26 27 27 27 29 31 32 31 31 32 33 35 35 33 32 33 35 34 37 36 39 36 37 34 37 41
29 31 29 29 29 30 30 29 28 28 25 26 26 26 26 26 28 29 29 30 30 31 33 34 33 32 30 29 34 32 33 36 36 35 36 35 35 39
30 30 30 30 30 31 30 29 28 27 27 26 25 25 26 26 26 26 28 26 28 30 31 35 34 32 29 27 30 32 30 34 36 35 36 37 36 31
33 33 32 31 31 31 29 28 26 26 24 24 25 24 24 25 26 27 27 26 27 29 28 30 33 30 34 34 30 31 32 30 31 33 35 33 33 34
33 33 33 33 31 30 29 28 27 26 26 26 25 25 25 24 24 25 26 26 28 28 29 31 33 33 32 32 31 29 31 31 30 30 30 29 31 31
34 33 33 32 31 30 29 28 28 27 26 25 25 25 24 24 25 25 25 27 27 27 28 28 31 33 32 32 30 32 29 30 32 31 31 28 30 30

GFSNE_sfc_temp_015.txt.gz
Temp
52 52 52 52 52 52 51 49 44 36 39 46 47 52 53 52 51 50 50 49 47 46 46 46 45 46 47 48 49 50 52 54 54 54 56 59 61 62
54 52 51 51 51 51 50 49 48 43 38 46 48 49 50 50 49 48 48 47 47 46 45 45 43 43 45 45 46 47 49 51 52 52 53 55 58 61
52 50 50 50 49 48 50 49 48 46 41 45 48 47 45 44 45 47 48 48 49 47 44 44 43 43 43 43 44 45 46 47 49 51 51 52 55 60
49 49 48 50 47 48 48 46 46 46 43 38 41 41 41 43 44 43 46 48 48 48 45 41 43 43 43 43 43 43 44 45 46 47 49 50 52 57
49 48 46 46 45 45 44 43 43 43 41 36 35 39 41 42 42 43 43 44 48 47 42 40 43 42 43 43 43 43 43 44 45 45 45 46 47 52
47 47 46 45 43 40 39 39 39 37 37 36 35 36 38 40 40 37 38 43 42 46 43 41 45 45 45 44 43 42 42 43 44 45 44 43 43 46
46 47 46 41 37 36 37 36 35 34 33 32 32 33 34 34 35 37 36 38 40 42 39 41 43 47 46 44 45 41 40 41 42 45 44 43 43 44
44 45 44 42 41 37 36 35 34 32 31 31 32 31 32 33 36 35 35 34 32 41 37 35 43 43 46 46 39 39 38 40 41 44 44 43 42 42
43 42 42 43 39 40 37 36 36 36 34 34 31 32 31 34 33 32 32 32 34 38 35 34 41 39 46 47 41 39 37 37 40 43 42 41 41 41
42 41 40 40 37 33 33 34 36 37 39 38 36 34 35 35 35 35 34 35 37 39 40 32 40 39 43 45 42 41 39 36 37 41 42 41 40 40
41 41 39 37 32 31 31 31 33 35 38 36 35 34 34 34 34 33 31 30 29 34 39 35 38 37 40 41 44 41 39 37 35 38 41 41 41 40
39 40 35 33 30 30 29 28 27 31 32 32 33 34 36 37 36 35 34 29 30 30 36 33 36 38 35 42 43 43 40 37 36 35 39 41 42 46
36 37 38 32 31 30 29 29 28 29 29 30 31 33 35 36 37 37 37 33 30 31 38 37 36 37 37 36 38 42 42 38 39 37 37 39 40 41
33 36 35 31 30 29 30 30 28 28 31 29 29 30 30 31 34 36 37 38 38 36 39 36 34 36 31 33 36 40 42 42 42 42 39 39 40 40
34 34 30 31 31 31 32 30 28 32 29 27 26 29 31 33 35 34 35 36 39 38 39 39 37 36 36 34 33 36 37 41 43 42 43 42 41 42
33 34 33 31 31 29 31 34 33 32 29 28 27 29 32 32 32 34 33 33 32 35 38 38 37 37 34 36 36 35 38 36 41 42 42 42 44 44
31 32 33 33 32 33 33 33 33 32 30 29 28 28 28 30 31 33 32 33 30 32 32 35 37 37 37 35 32 35 36 37 39 37 39 39 41 43
31 31 31 30 30 31 31 31 32 31 30 28 28 28 27 27 28 30 32 31 30 32 32 34 33 32 33 34 35 34 36 36 38 39 37 34 37 40
29 31 31 31 30 32 32 32 30 31 29 30 28 27 27 28 28 28 29 29 28 30 32 34 34 31 29 28 36 35 33 35 37 36 37 35 35 38
32 32 32 32 32 33 33 32 31 30 29 28 27 27 26 26 27 28 28 26 27 28 30 33 32 31 27 27 29 31 31 31 34 35 35 37 35 31
33 34 34 34 33 33 32 31 29 27 27 26 27 27 26 26 25 27 28 27 28 29 27 29 32 31 34 34 30 31 31 32 32 32 33 34 33 35
33 34 35 35 34 33 31 30 29 29 28 28 27 27 27 26 26 25 26 26 28 28 28 31 33 33 33 31 30 29 31 32 31 31 31 31 30 30
34 35 34 34 33 32 32 30 30 29 28 27 27 27 26 25 27 27 26 26 27 27 28 28 30 32 31 32 30 30 30 30 32 31 30 30 30 30

GFSNE_sfc_temp_021.txt.gz
Temp
40 39 41 40 40 38 37 36 32 23 29 33 32 38 37 38 40 38 38 43 45 44 44 45 46 47 47 48 49 48 48 49 50 50 51 53 55 56
43 41 42 41 40 38 36 36 35 29 24 32 32 34 35 40 41 39 38 43 43 43 43 44 45 46 46 46 47 47 47 47 48 49 50 51 53 54
42 40 40 41 37 36 35 34 32 30 25 29 32 32 32 32 35 35 38 38 38 43 43 44 44 43 43 44 44 45 45 46 46 47 48 50 51 53
40 39 38 43 36 34 31 30 29 29 27 25 28 30 29 31 32 32 37 41 38 41 43 43 43 42 41 41 41 42 43 44 44 44 45 46 48 50
40 39 38 37 31 30 30 28 27 32 26 24 26 29 29 30 31 32 33 33 38 41 41 41 41 41 41 40 40 41 42 43 42 42 43 43 45 47
39 38 37 34 32 30 30 28 29 25 25 24 26 27 28 30 29 26 27 30 30 36 38 39 39 40 40 38 39 42 42 41 41 41 41 41 41 43
36 38 36 37 39 34 31 27 26 24 24 24 24 26 26 26 26 27 26 27 29 30 31 32 34 34 36 37 38 40 39 40 40 42 41 42 41 42
34 33 34 36 36 36 35 34 32 25 23 21 24 24 25 25 27 24 24 23 21 28 27 28 31 31 36 38 37 38 39 38 39 40 40 42 40 39
32 31 33 36 31 29 30 31 30 32 32 26 24 23 23 25 25 25 24 23 23 27 27 25 29 28 35 40 40 40 38 38 38 39 38 40 40 39
31 31 30 27 28 29 27 25 25 27 28 30 25 24 25 27 26 28 27 26 26 28 27 22 27 27 32 35 38 40 39 37 38 39 37 39 39 39
32 32 31 29 31 32 27 25 24 25 31 32 32 32 32 33 33 30 26 25 21 25 27 24 25 25 29 29 32 39 39 37 37 38 37 37 39 37
29 30 33 29 32 32 25 22 20 23 24 25 26 27 29 29 33 29 29 25 24 23 27 25 26 26 23 25 26 27 27 35 35 37 36 36 39 38
27 26 27 32 32 33 32 24 22 26 26 25 24 25 26 27 28 29 29 28 26 27 30 28 25 25 26 26 26 28 30 32 33 35 35 34 38 39
27 26 25 33 33 33 31 31 31 28 16 18 19 21 22 24 27 28 29 29 30 30 32 29 25 25 21 24 26 30 32 28 32 34 33 34 34 36
25 27 31 33 33 30 32 32 27 21 16 12 16 17 20 25 27 26 28 30 30 31 35 32 28 28 24 25 26 28 29 32 32 34 32 32 32 32
27 27 24 25 22 24 24 27 24 22 20 15 15 17 20 20 21 24 24 25 25 27 32 31 30 29 22 24 27 27 28 28 31 32 33 32 32 32
19 20 20 19 21 23 22 22 21 21 18 14 13 14 18 20 22 24 25 25 21 23 26 29 32 30 25 27 22 25 24 25 30 32 32 32 32 32
26 19 15 13 16 21 19 20 17 18 18 17 12 15 15 15 19 23 25 24 22 23 23 26 26 26 29 27 31 25 21 23 25 29 32 29 30 32
17 17 14 15 17 22 22 20 17 16 17 16 13 11 12 15 16 19 21 22 22 23 24 25 23 20 19 18 27 31 21 25 29 25 25 26 25 30
21 20 19 20 21 23 22 21 17 13 14 14 10 7 7 12 11 15 18 15 19 23 24 26 24 23 18 15 21 24 32 21 23 28 22 22 27 30
24 23 23 23 23 24 23 20 15 11 9 6 7 8 8 11 11 15 13 16 17 22 21 22 24 27 27 23 20 24 21 32 29 29 27 22 21 21
26 26 26 26 26 27 27 22 17 15 12 9 8 7 5 7 8 9 10 9 18 18 19 21 26 27 28 27 25 21 21 19 27 31 31 30 26 19
28 28 28 27 26 24 26 24 23 20 18 15 13 9 2 9 9 9 10 14 15 17 19 18 21 26 26 27 25 26 22 21 23 21 21 30 30 30

GFSNE_sfc_temp_024.txt.gz
Temp
38 38 38 38 38 37 37 35 32 22 26 29 30 34 34 35 37 37 35 41 43 43 43 43 45 45 46 47 47 48 49 49 50 49 49 50 52 53
40 39 39 41 39 37 36 35 34 30 25 28 29 31 33 37 38 36 34 41 40 41 42 42 43 44 44 45 45 45 47 47 48 49 49 49 50 52
39 39 39 38 36 35 33 34 32 32 27 27 28 29 28 29 32 33 35 34 34 40 41 42 42 42 42 42 42 43 43 45 46 46 47 48 49 50
38 38 38 42 35 33 30 29 29 28 26 24 25 26 27 28 29 29 34 38 34 38 40 40 40 41 41 41 41 40 41 42 43 44 45 45 46 47
39 39 38 35 32 29 29 28 27 31 26 23 24 26 26 27 29 30 30 30 35 38 38 38 39 39 40 40 40 39 40 42 42 42 42 42 43 44
38 36 36 34 32 30 29 27 28 25 25 24 25 25 26 28 27 25 26 29 29 34 35 35 37 38 38 39 40 38 40 41 42 42 41 41 41 42
35 36 34 35 38 33 30 26 25 24 23 23 23 24 25 25 24 26 25 26 27 29 28 28 31 30 31 36 38 38 38 37 39 40 41 41 40 41
33 33 33 36 36 36 35 34 30 24 22 20 22 22 22 22 24 23 23 22 22 27 25 26 29 28 30 31 38 39 40 37 37 39 40 39 39 40
32 31 33 34 32 30 31 31 29 31 30 23 20 21 21 23 24 23 24 23 23 27 26 24 26 25 30 35 37 38 39 39 40 38 39 37 38 39
31 30 30 29 28 29 27 26 26 26 27 28 24 24 24 26 27 28 26 26 27 27 26 22 25 25 29 31 35 37 38 39 39 38 38 36 37 38
32 32 30 28 31 33 27 26 25 25 31 32 32 32 32 32 32 28 25 24 22 25 30 25 23 23 26 27 28 37 36 37 38 35 38 36 37 37
29 30 34 30 32 32 25 23 20 24 24 25 26 27 28 28 31 27 27 23 23 22 27 25 24 23 21 26 27 25 30 35 35 35 37 36 36 36
28 27 27 33 33 33 33 24 22 26 25 25 24 24 25 25 27 27 27 25 23 23 29 29 26 24 23 23 25 25 28 33 32 33 36 35 34 37
28 28 27 32 33 33 32 31 32 28 20 18 18 20 21 22 25 26 27 26 27 26 29 29 28 24 21 20 21 25 30 31 32 33 33 34 33 37
27 28 30 32 33 31 33 32 27 22 17 11 18 17 19 23 25 25 27 27 28 28 33 31 30 28 26 23 22 26 28 31 32 32 32 32 32 32
27 29 25 26 22 22 22 26 24 22 20 17 14 16 18 18 19 22 22 23 23 24 30 29 30 29 26 26 25 24 27 27 30 32 32 32 32 32
25 20 19 19 21 22 21 22 22 20 17 13 13 14 16 18 19 21 22 22 16 20 22 26 30 30 26 27 20 24 26 26 28 30 31 32 32 32
25 21 21 19 20 21 19 19 17 17 18 17 13 14 13 13 16 19 21 20 19 21 22 24 21 22 25 24 30 24 23 25 28 29 31 30 30 31
26 26 23 19 19 20 20 20 19 18 17 17 15 11 10 13 13 16 16 18 19 20 22 24 22 18 18 10 24 31 27 24 25 27 26 28 29 30
27 23 22 21 20 21 21 21 21 16 16 15 13 6 2 9 10 12 14 9 16 20 21 23 22 21 20 21 18 20 31 25 22 22 23 27 29 31
27 25 24 23 22 23 22 19 17 16 15 11 10 8 1 9 8 10 9 11 10 21 19 19 22 25 26 25 17 18 23 30 29 25 28 25 24 23
27 27 27 25 24 24 23 22 18 17 18 13 10 7 2 4 6 6 5 10 13 13 19 20 24 25 27 26 22 17 24 17 25 29 30 27 24 21
29 28 28 27 27 25 26 25 23 22 22 19 15 12 3 6 8 5 5 14 14 13 15 18 20 24 24 24 24 23 21 21 18 19 19 29 30 30

GFSNE_sfc_temp_027.txt.gz
Temp
37 36 36 36 36 36 35 34 32 24 25 29 30 32 32 32 34 34 32 38 41 41 41 42 43 44 45 45 46 47 47 48 48 49 50 50 50 50
38 37 36 36 37 36 34 33 32 29 26 28 28 29 30 34 35 33 31 39 38 39 40 40 41 42 42 43 44 44 45 45 46 47 48 48 49 49
37 37 37 37 36 34 33 33 31 29 25 27 27 28 27 27 30 29 31 31 31 38 39 39 40 40 40 41 42 42 43 43 43 45 46 48 48 49
37 36 37 40 34 32 31 30 28 27 26 24 25 25 26 27 27 27 32 35 31 36 38 39 39 39 39 40 40 40 41 41 41 42 43 45 46 47
37 36 37 36 32 30 29 28 27 30 26 23 24 25 25 26 27 28 29 29 33 36 36 36 37 37 38 38 39 39 40 40 39 41 42 42 43 43
36 36 35 34 32 30 29 27 27 25 24 23 24 24 24 27 25 24 25 29 28 33 33 34 35 36 36 36 37 38 39 40 39 39 40 40 40 41
35 35 34 35 38 33 30 27 25 24 23 22 22 22 23 23 22 24 23 24 26 28 27 28 30 30 30 33 35 36 38 40 39 38 40 40 40 40
33 33 33 37 37 37 37 34 29 24 22 20 20 20 21 21 22 21 21 21 21 27 25 26 29 28 29 30 34 36 38 39 39 40 40 40 40 38
32 32 32 34 33 31 34 33 32 32 31 23 19 20 20 22 23 22 23 24 23 27 25 24 26 25 30 33 35 36 37 38 39 39 40 39 38 37
31 30 30 29 29 29 27 26 26 27 27 28 24 23 24 25 25 27 26 26 26 27 27 22 25 25 28 30 35 37 37 37 37 39 39 38 37 36
31 31 30 29 32 34 28 26 26 26 31 32 32 32 32 32 31 26 22 22 20 24 27 24 23 24 27 28 29 36 36 36 36 36 36 36 38 36
29 30 34 31 33 33 26 24 21 25 25 25 26 27 28 27 30 26 24 21 21 20 25 22 25 26 22 23 25 27 25 33 35 36 35 36 37 35
29 28 29 33 34 34 33 25 23 26 25 24 25 24 24 25 26 27 26 23 22 22 27 27 25 27 26 23 23 25 23 28 30 34 36 36 36 35
29 29 28 33 34 34 32 31 32 27 19 18 17 20 20 21 24 25 26 25 26 25 27 28 26 27 25 20 20 22 25 29 30 31 33 35 35 34
30 30 31 33 34 32 33 33 27 20 15 11 17 18 18 23 24 24 25 26 27 27 30 29 27 28 28 24 23 22 24 28 31 30 33 33 32 32
29 30 30 29 27 27 24 27 24 22 20 17 15 15 16 18 17 20 19 22 21 23 28 29 27 29 27 26 25 23 23 26 30 30 31 32 32 32
30 27 26 24 24 25 24 22 21 20 17 13 12 14 16 17 17 18 19 19 13 18 21 25 28 28 27 27 22 24 24 25 28 29 31 31 32 32
28 23 23 24 23 24 23 22 18 17 19 17 11 15 15 13 15 17 18 15 15 18 20 23 23 21 22 24 29 27 24 25 27 29 30 29 30 31
27 25 24 25 24 25 24 22 20 19 18 17 16 14 13 12 12 14 14 15 14 17 20 22 22 18 18 17 23 30 25 27 26 24 26 27 28 29
30 27 25 26 25 25 24 22 22 20 15 15 13 12 9 9 9 11 12 7 11 17 18 21 20 21 19 20 21 19 30 27 25 24 25 28 29 31
30 30 26 26 26 25 24 23 22 18 13 10 15 15 9 10 8 10 8 9 8 17 17 18 21 24 24 24 20 18 23 29 30 27 27 26 24 24
31 29 29 27 26 25 24 24 21 17 13 14 14 15 11 9 9 7 2 5 12 11 15 18 22 25 25 25 22 22 24 20 26 29 30 29 23 22
31 29 29 29 27 26 25 24 23 22 20 19 18 15 10 9 10 7 3 9 12 11 13 14 19 21 23 24 23 21 22 22 20 20 20 28 30 30

GFSNE_sfc_temp_030.txt.gz
Temp
37 37 36 36 36 36 35 34 32 29 28 33 33 35 34 34 35 36 34 37 39 40 40 41 41 42 43 44 45 45 46 47 47 48 48 48 50 51
38 37 36 36 35 35 35 35 33 31 29 31 32 32 33 35 35 35 33 38 37 38 39 39 40 41 41 42 42 43 44 45 45 46 46 47 48 50
37 37 36 36 35 34 34 33 32 31 28 30 30 31 30 31 32 32 32 32 33 37 38 38 39 39 39 39 40 41 42 43 43 44 44 45 47 49
37 36 36 39 35 33 32 32 30 30 28 26 28 28 28 30 29 29 32 35 34 35 37 37 37 38 38 38 38 39 40 41 41 42 42 43 44 46
36 35 36 35 33 32 31 30 29 31 28 26 26 28 28 29 29 30 30 31 33 35 35 36 36 37 37 37 38 38 39 39 40 40 40 41 41 43
36 35 35 34 33 32 31 29 29 27 26 25 25 26 26 29 28 26 26 29 29 32 33 34 35 35 36 36 36 37 37 39 39 40 40 39 39 40
34 34 34 35 38 34 31 29 27 26 25 24 24 24 24 24 23 26 24 26 27 30 30 32 32 33 33 34 34 35 36 37 38 39 40 39 38 40
33 33 33 37 37 38 37 35 30 26 24 22 23 22 23 23 24 23 23 23 22 31 28 28 32 31 33 33 34 36 37 37 38 38 39 40 40 39
33 33 32 34 34 32 35 35 33 33 31 25 22 23 22 24 25 23 24 24 25 29 28 26 31 29 33 35 35 36 37 38 38 38 38 39 39 39
32 32 31 31 30 30 29 28 28 29 29 29 26 25 25 26 26 27 25 26 27 29 30 23 30 28 32 33 34 35 37 37 37 37 37 37 36 37
32 32 31 30 33 35 29 27 27 28 32 33 33 32 32 32 32 27 23 22 20 24 29 25 28 27 30 30 32 34 37 36 36 37 37 36 36 36
30 31 35 31 33 34 29 26 23 27 27 27 27 28 30 29 30 28 26 20 21 21 28 24 26 27 25 30 30 33 32 33 35 36 36 37 36 36
31 31 31 34 35 35 34 26 25 27 26 25 26 26 26 26 27 28 28 24 21 22 28 27 26 26 26 26 29 31 31 32 32 34 35 35 36 36
30 30 31 33 35 35 34 32 31 27 24 22 21 22 22 23 26 27 28 27 27 26 28 28 24 25 25 25 25 28 31 32 32 32 32 34 35 35
30 30 32 33 34 32 34 33 30 27 22 18 20 21 22 25 26 26 27 28 28 28 30 29 27 27 26 26 26 27 26 31 32 31 31 32 32 33
30 31 29 29 30 30 29 31 30 27 24 22 20 20 20 21 21 23 22 23 22 23 28 29 29 28 25 26 28 27 28 26 31 30 31 32 33 33
24 27 28 27 26 26 27 27 27 25 22 19 18 18 19 20 21 22 21 21 18 19 21 25 29 28 27 26 27 28 28 27 30 30 30 31 32 32
28 27 27 26 25 25 25 26 26 25 24 21 19 18 18 18 19 20 21 19 18 19 20 23 23 23 25 26 30 27 29 28 30 30 30 30 30 31
29 29 28 26 25 25 26 26 25 24 25 22 21 18 17 17 16 18 18 18 18 19 21 22 22 21 18 18 26 30 26 29 28 28 29 29 29 30
31 30 29 28 25 25 27 26 26 24 22 21 18 17 15 16 15 16 17 14 16 18 20 22 21 21 19 19 21 24 28 28 28 26 28 30 30 30
30 29 30 29 28 27 26 27 26 24 22 17 19 17 13 15 14 15 15 11 12 19 19 19 22 24 25 24 21 22 26 29 29 29 28 28 27 29
30 30 30 29 29 28 27 26 25 24 22 19 18 17 15 14 15 15 12 13 17 17 18 21 23 24 25 25 24 24 25 26 28 29 29 29 26 26
18 24 29 30 29 28 27 26 25 24 23 21 20 17 14 15 15 15 14 14 16 17 17 18 20 22 23 23 23 24 23 24 25 25 26 28 30 30

GFSNE_sfc_temp_033.txt.gz
Temp
51 51 50 52 51 50 49 48 45 39 43 48 45 49 49 48 47 45 45 42 40 40 40 40 41 42 42 43 44 44 45 46 47 48 48 48 48 49
52 50 50 51 50 50 50 49 47 44 39 48 47 47 47 47 45 44 44 40 40 38 38 39 39 40 41 41 42 42 43 43 44 46 46 47 47 47
50 49 49 50 49 49 48 48 46 45 41 45 46 46 43 43 44 44 43 42 43 40 38 38 38 38 39 39 39 40 40 41 42 44 44 45 46 47
50 48 48 49 48 48 48 46 46 46 43 40 44 42 41 42 41 40 41 42 42 40 37 37 37 37 38 38 38 39 39 39 40 41 42 43 44 45
49 48 49 48 47 48 46 46 46 44 43 40 40 42 41 41 39 40 40 40 41 39 37 37 37 37 37 37 38 38 38 38 39 39 40 40 41 42
47 47 48 47 47 48 46 45 44 42 42 39 39 39 39 40 38 36 36 39 38 40 39 37 37 38 37 37 37 37 37 38 38 39 39 39 39 40
47 47 47 46 44 44 45 45 43 41 40 39 37 37 37 37 35 36 34 36 37 39 39 40 41 41 42 40 40 38 37 37 38 39 39 39 39 39
47 47 47 41 41 38 37 38 41 41 38 37 37 35 35 35 35 34 32 31 30 40 37 36 41 39 42 43 39 37 37 37 38 39 39 39 39 39
46 47 46 45 41 44 39 37 35 34 35 39 35 36 34 35 35 33 33 32 32 36 35 33 39 38 42 43 39 37 36 37 38 38 38 38 37 37
46 46 45 45 44 43 42 41 41 40 38 37 38 38 37 37 36 34 32 33 35 37 38 29 37 36 40 41 39 38 36 37 38 37 37 37 37 37
44 44 44 44 41 37 39 38 39 39 37 34 34 34 32 32 34 34 31 30 28 32 37 33 35 34 36 38 41 38 37 37 37 37 37 37 37 37
42 42 37 41 37 35 37 36 34 38 38 37 37 35 35 36 33 35 35 28 28 28 37 30 31 32 30 39 39 41 40 38 36 37 36 36 36 36
40 41 41 35 35 35 35 36 34 38 35 36 36 37 37 37 37 37 37 33 29 29 35 32 30 30 29 29 36 38 39 39 40 40 39 37 36 36
37 40 40 36 35 35 36 36 33 32 35 34 33 32 33 34 36 37 37 35 35 32 35 34 28 28 27 29 30 36 38 39 39 38 34 35 35 36
39 38 35 35 34 34 35 35 33 32 31 31 31 32 34 36 36 34 34 35 35 34 34 35 31 31 30 29 30 32 33 36 38 36 34 34 34 34
35 37 35 34 34 35 35 34 33 33 32 31 30 34 35 32 32 34 31 32 30 31 34 34 33 32 30 32 33 31 34 30 35 35 33 33 34 33
33 34 34 33 32 32 32 32 34 33 31 31 30 31 31 32 31 33 31 30 27 28 28 32 34 33 33 32 29 33 33 33 34 34 32 32 33 33
32 32 32 32 31 31 30 31 32 31 33 30 30 30 30 30 31 31 30 28 27 28 28 30 30 30 32 33 31 31 32 31 34 34 33 31 32 33
32 31 32 32 33 32 30 31 31 33 32 30 30 29 29 30 28 29 29 28 27 28 29 30 29 27 25 24 34 31 29 30 32 33 34 32 31 32
29 32 32 34 34 30 30 30 32 32 31 30 29 30 29 30 28 28 29 27 27 27 27 30 30 28 25 24 24 30 30 29 30 31 33 35 34 31
23 23 23 28 34 34 31 30 31 31 31 30 29 29 28 29 28 29 29 24 23 26 26 28 30 28 30 29 25 28 32 29 30 30 31 32 32 32
20 21 22 23 25 34 31 30 30 30 30 29 29 29 28 29 29 28 28 27 26 27 27 29 31 31 31 28 27 27 30 32 31 30 29 29 29 29
17 18 19 19 21 21 26 31 31 31 31 30 29 28 27 27 29 29 29 27 27 26 26 27 29 31 29 29 27 29 27 29 32 30 30 28 29 29

GFSNE_sfc_temp_036.txt.gz
Temp
58 58 58 59 58 58 57 55 50 45 48 54 54 57 57 56 53 52 50 47 44 42 41 41 41 41 42 43 43 44 45 45 46 47 47 48 49 49
58 57 57 58 57 57 57 56 55 50 45 54 55 56 55 54 53 51 50 46 44 43 42 41 40 40 40 41 41 42 42 43 43 44 45 46 48 47
57 56 55 56 56 56 56 55 54 53 48 52 55 55 52 50 50 51 50 49 49 45 42 41 39 39 39 39 39 40 40 41 42 42 43 44 46 46
56 56 55 57 54 55 55 53 53 53 50 47 50 51 51 51 49 47 48 50 48 46 42 40 39 38 38 38 38 39 39 39 40 41 41 42 43 45
55 55 55 55 53 54 54 52 53 53 52 48 47 50 50 50 48 47 47 47 49 45 43 41 41 39 39 38 39 38 39 39 39 39 39 40 40 41
52 53 53 53 53 53 53 52 52 51 50 48 47 47 48 49 47 44 44 46 45 47 45 43 40 41 39 40 40 39 39 39 39 39 38 38 38 39
52 53 54 52 48 49 53 53 52 50 48 47 45 46 45 45 43 45 42 43 44 45 45 46 46 45 46 44 43 41 41 39 38 38 39 37 39 39
50 53 54 48 46 41 40 40 45 49 46 45 45 43 43 44 44 42 40 38 36 46 42 41 45 44 46 47 42 40 40 39 38 38 39 39 39 38
51 51 52 54 48 51 41 38 37 37 38 45 43 43 42 44 43 40 40 39 38 41 41 38 44 42 46 48 42 40 40 39 38 37 38 38 38 38
51 51 51 52 53 50 49 48 47 47 43 43 43 45 45 45 43 41 39 39 40 43 43 35 42 40 43 45 42 41 39 38 38 38 38 38 38 38
50 51 51 51 46 41 46 46 46 47 43 39 39 37 36 34 36 39 35 35 33 38 43 39 39 38 40 41 44 41 39 39 38 38 38 37 37 37
48 49 42 44 41 38 44 43 41 45 46 45 41 38 36 38 33 37 38 33 34 33 41 36 38 36 32 40 41 42 42 40 38 39 38 38 38 39
44 46 48 39 37 37 38 42 41 45 41 41 43 43 43 43 42 41 41 39 35 35 41 38 35 34 34 33 37 40 41 40 41 43 42 39 36 35
39 43 45 40 38 37 37 37 37 36 39 36 38 37 38 39 42 43 43 42 42 39 40 39 33 32 31 29 30 38 40 40 41 39 41 40 38 36
38 38 36 35 35 36 35 35 35 38 35 33 33 36 39 38 40 41 41 41 40 40 40 38 36 36 33 30 30 33 36 38 39 39 38 36 34 34
36 39 37 34 33 34 35 37 38 39 35 34 34 37 37 34 35 39 36 37 35 36 39 39 38 36 33 35 34 33 36 33 38 38 37 35 34 33
30 33 35 37 37 38 38 36 35 36 33 34 34 34 33 33 33 36 36 35 32 33 34 38 39 38 37 35 31 34 35 34 36 36 35 33 34 33
31 33 32 33 34 37 37 35 34 33 35 35 34 34 33 32 33 34 35 33 32 34 34 36 35 34 35 38 36 34 34 33 34 35 36 32 33 33
30 30 29 30 30 34 37 37 35 35 34 35 34 34 33 32 31 32 32 32 32 34 35 36 34 32 27 26 35 31 32 32 32 33 35 33 32 33
28 27 26 27 28 30 29 34 34 33 33 34 33 32 32 32 31 31 31 31 32 34 33 35 35 33 29 26 26 31 32 30 30 31 32 35 35 32
25 25 25 25 25 27 29 27 33 32 32 32 33 32 31 32 31 32 32 32 31 33 31 32 36 30 34 33 27 30 32 31 30 30 31 33 32 33
22 22 23 23 23 24 23 24 29 32 32 32 32 31 31 32 31 31 32 31 30 31 33 35 36 35 34 30 29 30 32 34 32 31 30 29 29 29
20 20 20 20 21 22 21 21 23 25 32 32 32 32 31 31 32 31 32 32 32 32 32 32 34 35 33 32 29 30 30 31 35 34 32 29 29 29

GFSNE_sfc_temp_039.txt.gz
Temp
56 60 59 60 61 60 59 57 51 45 48 55 55 60 60 59 56 56 54 50 47 45 45 44 44 44 43 43 43 44 44 45 46 46 47 47 48 49
61 59 57 59 59 59 58 57 56 51 46 54 55 57 58 59 56 54 53 50 47 45 44 44 43 43 42 42 41 42 42 43 44 44 45 45 46 46
57 54 54 57 56 56 56 56 54 53 48 52 56 57 55 54 55 54 53 51 51 47 45 43 42 42 41 40 40 40 40 41 42 42 43 44 45 45
49 48 51 55 54 54 55 53 53 54 51 48 53 53 53 54 53 51 51 52 51 49 46 43 42 42 41 40 40 40 40 40 40 41 41 42 43 44
47 50 53 53 52 52 54 54 54 55 53 50 49 53 53 53 51 51 50 49 51 49 45 43 42 42 42 41 41 40 40 40 40 40 40 40 40 41
49 52 52 52 51 53 54 54 54 52 52 50 50 50 51 52 51 47 46 49 47 50 48 45 44 44 44 42 41 41 41 41 41 41 40 39 39 39
45 49 52 51 48 49 53 52 52 51 50 48 48 48 48 48 46 47 45 45 46 47 46 47 46 46 47 45 45 43 42 41 41 40 40 39 38 37
43 48 52 49 49 43 43 42 45 48 48 47 47 46 46 47 47 45 44 40 37 47 44 42 45 44 46 47 44 41 41 40 40 40 39 38 38 38
42 45 51 55 50 55 48 41 40 39 39 45 45 46 45 47 46 43 42 41 40 43 42 39 44 43 46 47 43 42 41 40 40 39 39 38 38 38
50 51 51 52 53 51 52 51 51 50 47 45 44 47 48 48 47 45 42 41 41 42 44 36 43 41 44 44 42 42 42 40 39 39 39 38 38 38
50 51 51 51 47 43 46 46 48 49 47 42 42 42 37 36 38 42 37 35 33 38 43 40 40 39 41 40 43 41 39 40 40 40 39 39 38 38
47 49 43 45 41 40 44 44 42 45 47 46 44 40 38 40 35 38 38 33 34 34 41 37 38 37 33 40 40 41 42 40 40 40 40 40 40 40
38 40 43 39 38 38 36 39 41 44 42 43 43 40 43 43 42 40 39 37 35 36 42 39 36 36 34 34 37 39 40 39 40 42 41 41 40 38
36 39 39 36 35 36 37 37 35 35 39 39 36 36 36 41 43 43 42 41 42 41 43 41 35 34 32 31 31 36 38 39 40 40 39 40 39 38
37 36 34 34 35 36 36 35 34 35 34 33 33 36 38 41 42 39 40 40 42 42 42 41 37 36 35 32 31 33 34 37 38 37 38 36 36 34
34 34 32 32 33 33 34 37 38 36 35 35 35 38 39 35 34 37 35 35 36 36 40 41 39 37 33 34 33 33 35 32 37 37 36 35 36 33
28 31 34 35 35 36 36 38 39 39 35 35 34 33 33 34 34 36 34 33 32 33 34 38 40 39 37 35 32 34 34 34 36 34 34 33 34 33
29 31 31 30 29 30 31 33 34 31 35 34 33 33 33 33 34 34 34 32 32 33 34 37 36 35 35 36 37 34 34 33 33 33 35 32 32 32
29 29 28 27 27 27 28 29 29 31 29 35 33 33 34 35 33 33 32 31 31 33 35 37 35 33 28 26 34 31 31 32 31 32 34 33 31 30
29 27 26 27 26 25 26 26 27 29 27 33 33 33 32 33 32 33 32 31 31 33 34 36 35 34 31 28 27 32 33 31 30 30 31 33 33 32
26 26 25 25 24 24 24 25 25 24 25 31 32 33 32 33 32 33 33 31 31 33 32 34 36 30 35 34 28 30 31 32 31 30 30 31 31 32
23 23 23 23 22 22 22 23 23 22 22 24 32 32 32 33 33 33 32 31 31 33 33 36 38 36 34 31 29 31 32 32 31 31 30 29 28 27
21 21 21 21 21 21 21 21 21 20 20 23 24 27 32 31 33 33 32 31 32 32 33 33 35 35 33 33 31 31 30 31 34 31 31 29 30 30

GFSNE_sfc_temp_045.txt.gz
Temp
51 51 51 51 51 50 49 48 42 34 36 42 43 48 46 44 44 44 40 47 46 46 46 47 48 48 49 48 48 47 47 47 46 46 46 47 48 48
51 50 49 48 48 48 47 47 46 39 35 39 41 42 44 49 46 42 42 47 46 46 45 45 46 48 48 47 47 46 47 46 46 45 45 46 46 46
47 47 46 46 46 46 46 46 44 44 40 39 40 42 41 42 44 41 43 42 42 46 45 45 45 45 45 45 45 45 45 46 45 45 44 44 45 46
45 45 45 48 45 43 42 44 41 41 41 39 36 38 39 40 40 39 44 47 42 45 46 45 45 44 43 43 43 43 43 44 44 44 43 43 44 44
45 44 45 45 41 41 41 39 39 46 44 41 42 37 40 37 39 39 38 38 43 47 45 45 45 44 44 42 42 42 43 43 42 42 42 42 42 42
45 45 46 45 43 40 40 39 41 42 42 40 41 41 38 40 40 40 38 34 38 45 46 43 42 44 44 43 43 43 43 43 43 43 42 40 40 41
44 46 45 44 43 42 42 40 37 37 37 37 37 37 35 33 35 37 34 38 33 36 33 34 34 34 34 40 41 43 43 42 43 43 43 42 40 40
43 43 44 43 42 40 40 40 40 39 37 36 37 36 37 34 37 35 34 33 32 33 32 31 34 31 33 33 40 41 41 41 41 42 42 41 40 40
41 41 42 44 40 39 37 37 36 38 37 34 34 36 37 38 35 34 33 35 35 34 33 32 30 29 32 40 41 41 41 41 40 40 40 40 39 39
41 40 36 35 35 35 33 32 33 35 36 37 35 35 36 38 38 38 37 38 37 35 33 31 27 28 31 31 39 41 41 40 40 40 40 39 39 39
37 35 35 34 37 37 32 30 30 31 37 38 38 38 38 38 38 36 33 33 31 29 32 30 27 27 28 28 30 39 39 38 39 39 39 39 39 39
31 33 34 34 35 35 30 28 26 28 29 30 31 32 34 34 37 36 35 32 31 27 29 28 28 26 22 26 28 29 28 34 36 37 38 38 38 35
27 28 28 33 33 34 34 28 28 31 31 30 30 31 32 32 34 34 35 33 31 28 31 30 27 25 23 23 24 28 28 27 27 32 35 37 37 37
27 26 26 31 32 32 31 33 32 30 29 30 29 30 29 30 32 36 32 34 36 34 34 31 27 25 22 21 21 24 23 25 25 28 29 32 34 35
27 28 29 30 30 29 31 31 28 26 24 23 24 26 27 30 32 33 35 33 33 33 35 34 28 30 27 24 21 23 22 24 25 22 24 22 28 31
25 24 24 26 24 25 26 27 26 25 23 22 21 22 25 26 28 34 33 32 29 28 34 33 31 30 26 25 25 22 23 23 25 23 25 22 31 30
19 17 20 21 23 24 24 24 23 22 20 22 21 20 21 23 26 33 33 32 29 28 28 31 31 31 29 30 22 24 25 23 24 25 24 23 30 29
20 16 13 11 17 20 19 19 19 18 19 20 19 19 19 22 22 32 31 30 28 26 26 26 25 26 26 28 31 25 22 22 22 25 25 23 28 29
17 16 10 9 13 19 18 17 16 18 20 18 17 17 18 20 19 24 30 29 28 24 24 25 26 23 20 16 24 32 22 22 22 21 23 26 26 28
21 17 13 13 15 17 16 15 15 15 15 15 15 16 17 17 17 17 29 28 28 26 26 27 26 26 23 18 14 19 32 22 19 18 20 27 30 31
19 18 13 12 15 14 7 5 3 11 11 11 13 15 15 16 15 17 26 27 24 28 26 26 28 28 27 22 12 13 19 32 27 21 20 24 26 24
15 15 14 13 8 8 2 1 8 10 10 11 12 12 14 15 14 15 17 25 26 26 26 29 29 29 26 23 17 8 18 22 30 31 30 28 21 18
9 11 7 2 1 2 11 6 8 8 9 11 10 11 13 13 14 15 15 19 28 27 27 27 28 28 27 26 20 16 20 21 26 25 23 29 30 30

GFSNE_sfc_temp_048.txt.gz
Temp
51 50 50 50 50 48 48 47 41 37 37 39 41 45 44 43 43 43 42 48 47 46 47 48 50 50 50 50 50 50 49 49 48 48 48 47 47 48
50 49 48 47 46 46 46 45 44 41 37 38 39 41 43 47 45 41 41 46 46 45 45 46 47 48 49 49 49 49 49 48 48 48 47 47 47 47
48 47 46 46 45 45 45 45 43 43 41 43 39 40 39 40 43 41 41 40 42 45 45 45 45 45 46 46 47 47 47 47 47 47 47 47 47 47
46 46 45 47 45 45 44 43 42 41 40 37 36 36 37 39 39 38 42 45 43 45 46 45 45 44 44 45 44 44 45 45 45 45 45 46 46 46
46 46 45 45 44 43 42 40 38 42 38 37 38 37 36 37 38 39 40 41 45 47 45 44 44 45 45 44 43 43 43 43 43 43 43 43 44 44
46 45 45 45 43 42 41 37 39 35 36 36 37 38 35 38 35 38 39 35 39 45 45 44 45 45 44 44 43 43 43 43 43 43 42 41 41 41
44 45 45 44 43 41 39 38 35 35 34 34 34 34 33 32 30 34 34 38 38 35 36 38 40 41 38 43 42 43 43 43 42 43 43 42 41 41
42 43 44 43 42 39 38 38 36 31 29 29 30 30 32 31 34 33 34 33 32 34 31 35 36 34 37 36 39 40 41 41 42 42 42 41 41 40
41 41 42 42 38 35 35 35 34 36 35 30 28 29 30 32 33 34 34 33 32 36 32 34 30 35 37 39 39 40 41 41 41 40 40 39 39 39
40 37 36 33 34 33 31 29 30 31 31 33 28 30 30 32 31 32 31 32 34 36 34 31 35 33 37 35 39 40 40 40 40 39 39 39 39 38
36 36 33 31 35 35 30 28 28 29 35 35 36 36 35 35 35 32 29 29 27 31 31 33 33 29 28 29 32 39 39 39 38 38 38 38 38 38
31 31 34 32 34 34 28 26 26 26 27 28 29 30 32 32 34 32 31 28 28 27 29 29 26 28 26 28 28 28 28 35 37 37 37 38 37 33
28 28 28 32 32 33 33 27 28 28 27 26 26 27 28 29 30 31 32 31 29 29 31 31 26 27 27 26 26 27 28 27 26 29 34 35 36 35
28 27 28 31 31 32 30 32 30 27 24 23 22 23 23 23 25 27 28 30 34 32 35 32 29 28 26 22 22 23 23 24 24 26 23 30 33 34
27 28 28 29 29 28 30 29 25 24 20 19 19 21 21 23 24 26 27 30 34 35 35 32 31 29 26 23 22 23 22 24 22 21 20 20 20 24
26 26 25 25 24 25 26 26 25 23 21 19 19 21 21 20 20 24 23 26 31 29 32 32 31 29 25 25 26 22 23 22 22 21 21 18 20 24
22 20 21 22 22 22 22 22 21 20 18 18 17 17 18 18 19 22 22 23 28 29 28 30 31 30 29 30 21 23 22 21 22 23 23 16 18 23
22 17 14 11 15 19 18 17 17 16 17 17 15 15 16 16 17 18 20 19 26 28 28 28 28 28 27 27 31 24 21 21 22 25 24 17 18 25
19 17 12 10 14 18 17 16 14 15 16 14 13 12 14 15 15 16 17 18 24 27 25 26 27 24 18 14 24 32 23 21 21 20 23 20 21 27
21 18 16 16 16 16 15 14 13 11 10 11 10 10 11 12 13 13 15 16 16 28 26 25 24 25 21 17 14 19 31 20 18 17 19 24 28 31
19 18 16 15 15 14 8 4 -1 3 5 -2 6 9 7 10 11 12 13 14 16 26 26 25 28 27 26 22 13 13 17 30 26 21 20 23 24 25
16 16 15 14 11 9 2 -3 -2 -3 1 4 6 4 6 10 9 10 12 13 15 18 27 26 29 28 25 23 17 7 16 18 27 31 30 27 20 18
13 13 11 6 3 1 6 0 -0 5 1 5 7 7 8 7 9 11 12 14 16 17 24 25 27 26 26 25 20 14 17 20 23 22 23 30 30 30

GFSNE_sfc_temp_054.txt.gz
Temp
53 54 53 51 51 50 48 48 46 40 41 45 45 48 48 47 46 46 45 46 46 46 47 48 50 52 53 54 54 55 55 55 55 54 53 53 52 52
52 52 51 49 48 46 47 46 46 44 41 45 44 45 46 46 46 45 43 47 46 45 45 46 47 48 50 51 52 52 53 53 53 53 52 52 52 52
52 51 49 48 46 46 46 46 44 44 40 43 44 44 43 43 43 43 43 41 42 44 44 45 45 45 46 47 48 50 50 51 50 51 51 50 51 51
49 49 47 48 46 46 45 44 43 43 41 38 40 40 39 40 40 38 42 45 42 44 44 44 44 45 44 44 45 46 46 47 48 49 48 49 49 49
49 48 47 46 44 44 43 42 42 43 40 37 37 39 37 37 37 38 39 39 42 45 44 43 44 44 44 44 44 44 44 45 45 45 45 46 46 46
49 48 47 47 45 43 42 41 40 39 38 37 36 37 34 36 34 33 34 36 36 41 42 41 42 43 43 43 44 44 44 44 45 45 43 42 41 43
46 47 47 46 43 43 42 39 38 36 35 34 32 30 30 30 30 31 30 31 33 35 35 37 38 39 39 41 42 43 43 43 44 44 43 40 40 40
44 44 43 42 40 40 39 38 38 34 32 30 29 28 28 28 29 28 28 27 27 34 32 32 35 35 36 37 39 40 40 41 42 43 40 39 40 40
43 42 41 40 38 36 35 35 35 35 34 30 28 28 27 29 28 26 27 27 28 32 32 29 34 32 36 38 39 39 40 40 41 40 38 38 38 40
42 40 37 35 35 34 34 33 32 32 32 32 30 29 29 30 29 30 30 30 31 33 34 27 33 32 35 37 38 39 39 40 40 38 37 36 39 39
36 36 35 34 34 35 33 32 30 30 34 34 33 33 33 32 32 29 26 25 23 28 32 29 30 30 33 34 35 35 37 38 37 36 35 39 38 38
33 33 33 33 34 33 30 28 28 28 28 28 28 29 29 29 30 29 26 21 21 22 30 26 28 29 28 33 31 32 33 34 34 35 37 38 38 37
30 29 31 32 33 33 31 29 28 28 26 26 25 25 26 26 27 27 27 24 20 21 28 27 26 26 27 29 30 31 32 33 33 36 37 37 37 36
29 29 30 32 32 32 30 30 28 25 24 22 21 22 22 23 24 25 25 25 26 24 27 26 23 25 26 28 27 30 30 31 31 34 32 33 34 35
29 29 31 32 31 30 29 28 25 23 21 18 19 19 20 22 23 23 24 25 25 25 28 27 25 26 26 28 27 28 28 31 30 30 30 29 31 30
27 27 27 27 26 26 26 25 23 22 20 18 18 19 20 19 18 20 19 19 19 21 27 28 27 28 29 30 29 28 29 28 30 29 28 28 28 27
24 24 23 23 23 23 22 22 21 20 18 17 16 16 15 16 16 18 17 17 15 16 17 23 26 30 32 31 28 28 28 28 30 30 28 27 27 28
24 21 18 18 19 20 18 18 18 17 17 16 15 15 13 12 13 14 15 14 14 15 17 20 21 25 29 29 31 29 28 28 29 30 29 26 25 29
20 19 16 16 17 19 18 17 16 16 16 14 13 12 11 12 11 11 12 13 12 13 16 18 20 21 25 23 28 32 29 27 28 27 28 26 25 28
20 18 16 17 17 17 16 15 15 13 12 11 11 10 8 8 8 8 10 9 10 12 14 19 20 22 25 24 25 28 31 28 27 27 26 27 27 29
20 19 18 17 16 16 14 12 10 9 9 7 7 7 5 6 6 7 8 6 7 11 12 15 19 22 23 25 24 24 27 29 28 28 25 26 26 28
18 17 17 16 14 13 11 9 7 7 7 7 6 4 3 3 4 5 6 6 8 10 12 17 21 22 23 25 24 22 24 25 27 30 29 29 28 25
15 15 13 12 10 9 10 7 5 4 5 4 3 4 1 1 5 7 7 7 8 9 11 14 19 20 22 26 25 23 22 22 25 27 29 31 30 30

GFSNE_sfc_temp_060.txt.gz
Temp
69 70 70 69 65 63 57 56 53 50 56 63 62 65 61 67 60 59 63 53 49 48 47 48 49 50 51 51 52 52 53 54 54 55 56 56 57 58
71 69 69 69 65 62 59 54 54 54 52 66 62 60 60 60 50 54 61 50 49 47 46 46 47 48 48 49 49 49 50 51 51 52 52 53 54 55
70 69 66 61 58 56 56 56 55 56 54 59 58 59 49 50 53 55 59 57 61 47 46 45 45 45 45 46 46 46 47 47 48 49 49 50 51 52
69 65 63 57 57 56 53 52 54 58 56 52 47 57 52 49 50 54 56 57 60 51 47 45 44 44 43 43 44 44 44 44 45 45 45 46 47 49
61 60 58 56 54 53 51 52 53 51 54 47 50 44 47 49 47 51 51 56 58 51 45 44 44 44 43 43 43 43 43 43 42 42 43 42 43 44
58 58 58 56 55 54 52 51 48 45 47 44 42 42 41 47 47 47 52 55 54 56 51 46 44 45 43 43 42 43 42 43 42 42 41 40 40 41
60 57 56 54 51 52 49 48 46 43 43 41 39 40 38 41 41 47 50 51 52 52 51 52 52 52 50 46 46 44 43 42 41 41 41 40 40 40
58 55 56 47 47 43 43 43 45 43 41 38 37 38 40 42 46 46 47 45 44 54 47 48 50 48 51 52 45 42 42 41 41 40 40 40 40 40
56 53 48 46 44 42 37 36 35 37 40 40 37 38 40 42 44 45 44 44 44 48 46 43 48 47 52 52 43 42 41 41 40 40 39 39 39 39
51 48 45 42 41 38 37 34 33 34 35 37 40 40 42 43 44 45 43 43 43 44 46 38 47 45 48 49 43 42 41 40 39 38 38 38 39 37
41 41 40 37 36 37 33 31 30 31 33 34 34 33 33 33 36 43 38 37 35 41 45 41 42 42 43 43 45 42 40 39 39 37 37 37 38 37
35 36 36 35 33 34 34 32 29 29 32 32 31 31 34 34 31 37 39 34 34 34 42 37 39 39 36 43 44 43 45 41 38 38 37 37 36 42
32 32 33 33 33 33 33 32 32 34 33 35 38 38 38 38 38 37 38 36 33 34 39 37 36 35 34 35 40 41 42 43 42 42 36 36 37 38
30 31 31 32 31 31 30 32 32 33 34 34 33 34 34 35 36 36 36 36 37 35 37 33 30 32 31 30 31 38 41 42 42 39 41 40 37 37
31 31 31 30 29 30 29 29 30 32 31 29 30 32 32 33 33 32 33 34 35 35 34 33 31 31 31 29 30 33 34 39 40 40 40 39 39 41
30 30 29 30 30 27 28 29 29 30 30 28 27 29 30 29 28 30 28 30 28 29 33 33 32 31 29 31 33 32 35 34 41 41 39 40 39 40
28 29 29 29 28 29 29 27 28 28 27 27 26 26 25 26 26 28 26 26 24 25 26 30 32 33 33 31 29 32 33 36 39 39 39 36 37 38
30 29 28 28 28 28 27 26 27 24 26 25 25 24 23 23 23 24 24 23 23 25 26 29 30 30 32 35 36 34 36 36 38 38 38 35 35 39
28 28 27 27 27 27 27 27 25 25 23 24 22 21 21 22 21 22 23 23 23 25 27 29 28 27 25 24 34 36 32 34 36 35 36 37 35 38
28 27 26 25 26 26 25 24 24 24 23 22 21 21 20 20 19 20 22 22 23 24 24 26 28 29 26 23 22 29 31 29 31 34 36 39 38 30
26 25 25 25 24 25 23 22 21 21 19 19 20 19 19 19 19 20 20 18 18 20 21 24 28 27 28 28 23 26 33 35 32 34 35 35 35 36
25 25 24 23 22 22 21 20 20 20 19 19 18 18 18 18 17 17 18 18 19 20 21 25 27 28 27 25 23 24 29 31 33 32 32 32 35 32
21 21 21 20 20 20 20 18 17 17 17 16 16 16 15 15 16 17 16 17 17 18 19 20 23 25 24 25 24 24 26 25 32 32 34 32 31 31

GFSNE_sfc_temp_063.txt.gz
Temp
68 68 68 68 70 70 69 67 62 55 58 61 55 63 66 69 62 61 59 51 50 49 48 49 50 51 52 52 52 53 53 53 54 54 54 55 55 56
69 68 68 69 69 69 69 64 62 60 53 62 59 63 63 66 59 60 62 50 49 47 47 47 48 49 49 49 50 50 50 50 51 51 52 52 53 53
70 69 68 70 68 68 65 65 62 57 53 59 52 53 59 57 57 57 60 60 58 48 47 46 45 45 46 46 46 46 47 47 48 48 49 49 50 50
69 69 68 69 67 67 64 59 58 56 53 51 49 49 49 51 53 54 57 59 59 52 48 46 45 44 44 44 44 44 44 44 44 44 45 46 46 46
71 70 70 69 66 60 58 55 55 52 52 51 49 47 48 52 49 49 50 50 56 51 45 44 44 44 44 44 43 43 43 43 43 43 42 43 43 43
70 70 70 69 64 59 56 55 55 51 51 49 49 43 44 44 44 43 43 47 50 58 54 50 47 45 44 43 43 43 43 43 43 43 42 41 40 41
68 70 66 61 53 55 58 56 53 50 49 47 45 39 40 39 40 41 40 43 48 53 53 53 53 51 51 44 44 44 43 43 42 43 42 41 40 40
66 66 61 52 52 46 45 47 51 50 46 44 43 41 40 39 39 38 38 38 39 50 50 50 52 49 50 52 47 44 43 42 42 41 41 41 40 39
65 62 61 58 49 53 40 37 37 37 38 44 41 38 36 37 38 36 37 39 40 46 48 44 49 46 50 52 44 43 42 41 41 41 40 39 38 38
65 64 61 54 47 41 37 35 33 34 34 37 36 34 35 37 36 38 40 42 43 46 47 38 45 44 48 48 44 43 42 41 41 40 39 39 38 38
41 42 42 39 39 39 35 32 31 30 33 34 33 32 32 32 33 39 35 37 36 40 45 42 42 40 43 42 43 43 41 41 40 40 39 38 38 37
34 35 35 35 35 36 35 34 29 28 28 28 29 33 35 33 33 36 40 35 35 34 42 37 39 39 35 42 42 43 42 41 41 40 39 39 38 38
32 32 32 34 34 34 34 32 30 30 29 30 33 34 35 36 35 36 38 36 33 33 39 37 35 35 33 34 38 40 40 40 41 43 40 38 37 37
30 31 31 32 32 32 31 30 30 30 30 31 32 33 34 33 36 38 37 36 37 35 37 35 31 31 30 30 30 36 38 38 39 41 41 41 37 37
30 30 30 30 30 29 29 29 30 31 32 30 30 33 34 34 34 33 34 35 35 35 36 35 32 31 31 29 29 31 32 36 38 38 40 39 37 39
29 29 28 28 28 28 28 29 29 29 31 30 29 30 31 30 29 32 30 30 28 30 35 35 33 32 29 30 31 30 33 32 37 38 38 37 39 39
29 29 29 29 28 28 28 28 28 28 28 27 26 26 26 26 27 29 28 27 24 25 27 31 33 33 32 31 28 31 32 33 36 36 37 34 36 37
31 30 28 29 28 28 27 26 26 26 26 25 25 25 24 24 24 25 26 24 23 25 26 29 30 30 31 33 34 31 33 34 35 35 36 33 34 37
29 28 28 28 27 26 26 26 25 25 25 25 24 23 23 23 22 22 23 23 23 24 26 28 28 26 23 21 32 36 30 30 29 30 30 33 34 37
28 26 25 26 25 25 25 25 25 25 24 23 22 22 21 21 20 20 21 21 22 22 23 26 26 26 24 21 21 27 31 28 28 28 29 34 35 32
26 25 25 24 25 25 24 23 23 22 21 21 21 21 20 20 19 19 19 19 18 20 19 21 26 27 28 28 22 24 30 34 33 29 29 27 32 33
24 23 23 23 22 22 22 22 21 21 20 20 19 19 18 18 17 16 17 16 17 18 19 23 25 26 25 23 22 23 27 31 33 33 32 30 31 29
21 22 22 21 21 20 20 19 18 18 17 17 17 16 16 15 16 16 16 16 16 17 17 18 20 22 21 22 21 22 23 25 28 28 30 30 31 30

GFSNE_sfc_temp_066.txt.gz
Temp
62 61 62 63 61 60 60 59 57 51 53 54 55 59 59 60 60 57 57 51 50 49 49 51 52 53 53 53 54 54 55 55 55 55 55 55 55 55
63 63 63 64 62 61 62 59 59 57 53 56 55 56 58 61 60 58 57 52 49 48 48 48 49 50 51 51 51 51 51 52 52 52 52 52 53 53
64 63 62 62 61 60 60 61 60 59 55 59 57 55 55 56 55 53 54 52 50 47 47 47 46 47 47 47 48 48 48 48 49 49 49 49 50 50
63 63 63 64 61 62 61 60 59 58 56 55 56 53 51 52 53 49 52 55 54 48 47 47 46 45 44 44 44 44 44 45 45 45 46 46 47 47
65 64 63 62 61 61 61 60 59 58 56 54 54 51 50 46 46 48 48 48 52 51 46 45 45 45 44 44 44 44 43 43 43 43 43 43 43 44
64 64 64 64 63 62 61 60 59 56 55 53 52 50 46 44 48 45 44 45 46 50 47 45 44 44 44 44 44 43 43 43 43 43 42 41 40 41
64 65 65 62 57 58 62 59 57 55 54 52 50 48 43 39 42 44 44 43 43 44 43 43 43 42 42 43 44 44 43 43 43 43 42 42 40 40
63 64 64 54 53 48 47 48 54 54 53 52 52 49 45 44 42 40 39 35 34 41 38 38 42 42 45 43 45 43 43 43 42 42 42 42 41 40
63 62 62 61 51 55 45 42 38 37 40 52 50 46 37 37 38 35 33 33 32 35 36 33 41 39 44 49 44 44 43 42 42 41 41 40 39 39
61 60 58 57 55 52 39 34 33 33 35 37 35 35 36 37 37 36 34 33 33 34 37 30 37 36 41 40 43 43 42 42 42 41 40 40 39 39
39 39 40 40 38 39 35 32 31 30 33 34 34 33 33 33 34 33 31 30 29 31 37 33 33 33 33 35 37 42 41 41 41 40 40 40 39 38
34 34 35 35 35 36 34 32 28 28 29 28 29 30 30 30 31 31 32 30 30 29 32 31 33 32 28 33 33 33 33 39 39 40 40 40 39 34
32 32 33 34 35 34 33 31 29 30 29 29 29 29 30 31 31 32 33 31 29 29 33 31 30 29 27 26 30 32 31 33 33 36 39 40 40 37
30 31 32 33 33 32 31 31 31 30 29 28 28 28 28 28 31 32 32 32 32 31 33 32 26 26 25 24 24 29 30 31 30 33 33 36 38 38
30 30 31 31 31 30 31 31 30 30 28 28 27 26 26 27 28 28 31 32 32 32 35 32 28 28 26 23 23 25 26 29 31 31 31 31 31 31
27 27 27 28 28 28 27 26 26 27 26 26 25 26 27 26 26 27 26 27 25 26 31 31 30 27 25 26 26 24 26 24 28 30 30 31 32 34
29 29 28 27 26 26 26 26 26 26 24 24 24 24 24 24 24 25 25 24 20 21 22 27 29 28 27 27 23 25 25 26 28 29 29 28 30 32
30 28 27 26 26 25 24 24 24 22 23 23 22 22 22 22 22 22 22 20 20 21 22 24 24 24 26 28 31 26 26 26 27 27 27 26 26 31
26 25 24 24 23 24 23 22 20 22 24 22 20 19 18 19 19 20 20 20 19 21 21 23 22 21 17 13 24 32 23 23 23 23 24 24 24 28
24 23 22 22 22 22 21 21 21 20 19 19 17 16 16 15 15 16 17 14 16 17 18 20 20 21 18 15 15 20 30 24 21 21 22 27 30 32
22 21 21 21 20 20 19 18 16 15 15 13 14 13 9 13 12 13 12 11 12 15 15 16 20 22 23 22 14 16 21 30 30 25 24 24 23 25
20 20 19 19 18 17 15 13 12 10 10 11 6 5 5 7 7 8 7 8 12 13 15 17 20 21 19 17 15 15 18 22 27 30 31 30 24 21
15 17 17 16 15 13 13 10 8 6 6 6 8 9 1 3 9 9 11 11 12 12 13 13 16 18 17 17 15 14 16 17 21 22 24 30 31 31

GFSNE_sfc_temp_069.txt.gz
Temp
60 59 58 60 61 61 58 59 57 50 53 53 54 57 59 59 57 58 58 57 51 51 52 53 55 56 57 57 57 57 58 58 58 58 57 57 57 57
61 61 61 62 62 60 62 59 58 57 53 57 55 58 57 59 58 57 58 56 52 50 49 50 51 53 53 53 53 54 54 55 55 55 55 54 54 54
61 61 60 62 61 60 60 61 59 59 55 59 59 56 55 55 57 57 58 58 57 49 48 48 49 48 48 48 49 50 51 51 51 52 52 52 52 52
60 60 60 61 59 60 58 58 58 58 56 55 58 58 53 56 57 56 54 56 56 49 47 46 47 45 45 45 45 45 46 46 46 47 48 48 48 49
61 60 60 60 58 59 58 58 58 58 58 56 56 59 57 47 49 47 52 52 53 51 45 45 45 44 44 43 43 43 42 42 43 44 44 44 45 45
62 61 61 60 60 60 60 58 58 58 58 57 57 57 54 48 51 50 46 48 49 51 48 46 45 44 43 42 42 41 40 41 43 43 42 41 41 42
61 61 62 60 55 58 61 60 59 58 58 57 56 55 51 40 45 50 47 50 45 45 43 43 42 42 42 41 40 40 40 41 43 43 43 42 41 41
59 60 61 53 53 48 48 50 57 58 57 56 56 53 53 50 50 48 43 37 36 41 38 37 40 38 39 39 39 40 41 41 42 42 42 42 41 41
61 60 61 61 53 60 49 43 38 38 40 49 53 54 51 45 41 36 35 35 33 35 36 33 37 35 39 42 41 42 42 42 41 41 41 41 40 40
62 62 61 60 56 55 40 35 33 34 35 36 37 36 36 36 37 37 35 33 33 34 35 30 33 32 37 38 42 42 41 41 42 41 41 40 40 39
40 40 42 43 40 41 37 32 30 30 34 35 34 33 34 35 36 36 32 32 29 30 34 31 32 32 32 33 36 40 40 39 39 40 40 40 39 39
34 35 35 36 36 37 34 32 29 28 30 30 29 30 31 31 32 32 32 30 29 28 32 30 31 31 29 32 32 32 33 37 37 38 39 40 39 35
32 32 33 34 34 33 33 31 29 30 29 29 29 29 29 29 30 31 31 30 28 27 31 30 28 28 28 28 30 31 31 31 32 33 36 37 38 37
30 31 32 33 33 33 31 31 31 30 29 28 28 27 27 27 27 28 28 29 29 28 29 28 25 26 24 23 23 27 29 29 29 30 30 33 35 36
31 31 31 31 30 29 31 31 30 29 28 26 25 25 26 27 28 28 28 29 30 30 32 31 29 28 25 23 23 24 25 28 28 28 27 26 28 27
28 28 28 27 27 26 27 27 27 26 25 24 24 25 26 26 26 27 26 26 25 26 30 30 29 28 25 26 26 23 25 22 25 26 27 27 28 28
29 28 26 25 24 24 24 24 24 24 23 23 23 22 22 23 23 25 24 23 19 20 22 26 28 27 26 26 22 24 24 24 26 26 26 24 24 26
27 25 24 23 23 23 20 20 21 22 22 22 21 21 19 20 20 21 21 18 16 19 20 22 22 21 23 25 29 24 24 22 23 25 26 22 22 23
23 22 22 21 21 22 21 21 19 20 21 19 18 18 18 18 17 17 17 17 16 16 18 19 19 17 12 10 21 28 19 21 22 21 22 21 20 23
21 20 19 19 20 19 19 19 18 17 17 17 15 13 11 13 12 13 13 10 13 14 15 17 17 18 13 11 12 17 27 21 19 19 20 23 24 29
19 18 18 17 17 16 15 14 12 11 10 8 8 9 5 10 8 9 8 7 6 12 11 13 16 18 19 18 9 10 15 25 24 20 20 19 19 20
16 15 15 14 13 12 10 9 9 9 9 9 5 3 0 4 4 4 5 6 9 10 11 14 17 18 16 14 11 11 14 17 22 25 27 25 19 17
11 12 11 10 9 9 9 8 7 6 6 5 4 5 -1 1 4 4 3 8 8 8 10 10 12 14 13 13 11 11 12 13 16 16 19 26 28 29

GFSNE_sfc_temp_072.txt.gz
Temp
58 57 57 58 58 58 57 56 56 52 51 52 53 57 60 61 59 59 60 57 52 51 52 53 54 56 57 58 59 60 60 61 62 62 61 60 60 60
60 59 59 60 59 60 59 58 58 56 53 55 54 57 57 59 59 59 60 56 52 50 50 50 52 53 54 55 56 57 57 57 57 57 57 57 58 57
60 59 60 61 60 60 59 60 59 58 54 59 60 54 54 55 57 57 58 58 58 51 49 49 49 49 50 51 51 51 52 51 51 52 53 53 54 54
60 60 59 60 58 59 58 57 58 59 56 54 58 57 52 56 57 56 56 57 57 54 50 48 48 48 47 47 48 47 47 47 47 47 46 47 47 49
61 60 59 59 58 58 58 57 57 58 57 55 56 59 58 50 53 51 55 53 54 53 48 47 46 46 46 46 45 44 44 43 42 42 41 42 42 44
60 60 59 59 58 58 57 57 57 56 57 55 55 56 57 56 54 56 54 52 53 54 49 46 45 45 44 43 43 42 42 41 40 39 39 38 38 41
60 60 60 58 54 56 59 58 57 56 55 55 55 56 56 50 48 55 52 55 51 50 45 44 44 43 43 42 42 40 39 39 39 39 39 39 39 40
59 60 60 52 52 48 47 49 56 56 55 55 56 55 56 57 55 53 54 41 41 41 40 37 40 39 40 40 40 39 39 39 40 40 41 40 40 40
61 60 60 60 51 57 49 44 44 39 41 54 57 57 57 58 56 46 41 38 36 36 37 33 37 36 40 40 39 39 39 39 40 41 41 40 40 40
61 60 59 59 59 57 56 54 39 35 36 38 41 41 38 39 41 41 37 33 33 33 35 31 33 33 37 38 39 39 40 41 40 40 40 40 39 39
57 44 44 49 49 46 52 39 32 32 34 35 35 34 35 35 37 37 33 34 30 30 33 32 32 32 32 33 35 40 40 40 39 40 40 39 39 39
34 35 35 36 36 37 38 33 29 29 29 30 30 30 31 31 32 31 32 31 29 27 28 30 28 30 28 31 31 32 32 36 36 37 37 38 38 33
32 32 32 34 34 34 33 32 30 30 29 29 29 28 28 28 28 28 28 29 28 25 28 29 27 27 27 26 29 30 30 30 30 32 34 35 36 35
31 31 32 33 33 33 32 32 31 30 29 27 26 25 25 26 27 28 28 28 29 27 29 28 26 26 24 23 24 28 29 29 29 28 28 32 32 33
29 30 30 30 30 29 29 29 28 27 26 24 23 24 26 27 28 28 28 28 28 29 30 29 27 27 25 23 22 24 25 27 28 26 23 24 25 26
28 27 27 27 25 25 25 25 25 25 24 23 23 24 25 24 23 25 24 25 24 24 29 28 27 26 23 24 24 23 25 22 25 25 25 25 25 23
27 26 24 24 22 22 22 23 23 23 21 22 21 21 21 22 22 23 22 21 19 19 20 24 26 25 24 24 19 23 24 23 24 24 24 21 20 21
24 22 21 21 20 20 20 20 20 20 20 20 19 20 18 18 18 19 19 17 15 16 17 19 19 18 21 23 26 20 19 19 21 22 23 19 19 22
21 20 19 19 19 19 19 18 17 19 19 17 16 15 16 16 15 15 14 14 13 15 15 17 17 15 9 5 18 24 17 18 19 18 20 19 18 21
18 17 16 17 17 16 16 15 15 15 14 13 11 10 9 11 10 11 11 6 10 13 13 15 14 14 9 2 7 14 24 18 16 16 16 19 20 25
15 14 14 13 13 12 10 10 8 9 8 6 5 6 1 7 6 6 5 3 5 11 9 10 14 16 17 15 2 5 14 22 21 17 17 14 14 16
12 11 10 9 9 8 6 3 5 4 4 4 -3 -4 -6 -1 0 1 0 0 7 7 9 12 15 14 13 11 8 5 10 14 19 22 23 22 16 12
8 8 6 5 6 5 5 3 1 -0 -2 -3 -3 -2 -12 -5 1 0 -1 3 6 6 7 7 10 11 10 10 9 8 9 10 14 14 16 23 24 25

GFSNE_sfc_temp_075.txt.gz
Temp
58 58 58 58 57 57 56 55 55 49 51 53 52 56 58 59 58 59 59 57 52 51 51 52 54 56 56 57 58 59 61 62 62 62 62 62 62 62
60 60 59 58 58 58 58 57 55 55 52 59 59 57 57 59 58 58 59 55 53 50 50 50 51 53 54 54 55 56 57 58 60 60 60 60 60 60
60 58 58 60 59 59 58 59 57 57 53 58 61 61 54 56 58 57 58 58 59 52 50 50 49 49 50 51 51 52 53 54 56 57 58 57 56 56
60 59 59 60 58 59 58 58 58 59 56 54 58 58 52 55 57 57 57 58 59 56 51 49 49 48 48 48 48 48 48 50 51 53 52 52 53 54
60 59 59 59 58 58 58 57 57 57 57 55 56 59 58 53 52 53 55 56 56 56 50 49 49 49 48 47 47 47 47 47 46 46 46 46 47 47
60 60 60 59 59 59 58 58 57 56 56 55 55 55 56 57 52 54 55 54 53 56 52 51 49 47 46 45 45 45 45 44 43 42 41 40 40 40
58 58 59 57 53 55 59 58 56 55 54 54 54 55 55 55 53 56 55 56 57 54 54 49 48 45 45 44 45 44 42 42 41 41 40 39 38 38
57 58 59 51 51 47 46 48 55 55 53 54 55 54 55 56 57 56 53 53 52 44 44 40 42 41 43 43 42 40 40 40 40 40 40 39 39 38
59 59 59 60 52 58 48 44 45 45 48 57 55 55 55 56 57 55 54 52 53 40 38 34 37 36 39 40 39 39 39 39 39 39 39 39 39 39
60 60 59 59 59 57 56 55 52 48 42 43 48 46 41 38 41 43 43 34 34 34 35 32 34 33 37 38 39 39 39 39 39 39 39 39 39 39
58 47 40 46 44 42 53 52 40 32 34 35 35 34 34 34 35 36 33 34 32 29 30 32 31 31 32 32 34 37 37 36 36 39 39 38 38 38
36 34 34 34 36 37 38 42 32 28 29 29 29 30 30 30 31 29 32 30 29 28 28 29 29 30 28 29 30 30 30 32 34 35 35 36 36 34
32 31 32 34 34 34 34 32 30 30 28 28 28 27 28 28 28 28 28 28 26 24 28 29 27 27 27 27 28 28 28 28 28 31 33 34 34 34
28 29 30 32 32 32 30 30 30 28 27 26 25 25 25 26 26 27 27 27 28 26 27 28 26 25 24 23 24 27 28 29 29 29 28 30 31 32
28 28 28 29 28 28 28 28 27 26 25 23 22 22 23 24 25 25 26 27 26 26 27 26 25 25 25 23 23 24 25 28 28 26 26 25 24 23
27 25 25 25 24 24 24 24 23 23 22 21 21 22 23 22 21 23 22 23 22 22 25 26 25 25 23 24 24 23 25 22 25 24 24 23 22 20
25 24 22 22 21 21 20 21 21 21 19 20 19 19 19 20 19 21 20 20 17 17 17 22 24 25 25 24 20 19 19 19 21 21 21 19 18 18
22 19 18 18 18 18 18 18 18 18 18 18 17 17 16 16 16 17 17 16 14 16 16 18 18 18 19 20 24 18 17 16 18 20 21 16 17 20
18 17 16 16 16 17 16 16 14 16 16 14 13 13 14 14 14 14 13 13 13 14 15 16 15 12 5 2 15 23 15 16 16 15 17 16 14 17
15 14 13 13 14 13 13 13 12 11 10 10 9 8 9 10 9 9 10 7 10 12 12 14 13 12 7 0 2 12 21 15 13 13 13 16 17 22
12 10 10 11 11 10 8 7 7 5 4 3 2 3 1 6 4 5 6 5 6 9 8 9 12 15 15 13 -1 1 11 20 19 15 14 12 12 14
8 8 8 7 6 5 2 2 3 2 2 2 -2 -4 -6 0 1 1 1 0 6 6 7 10 12 13 11 9 6 3 8 12 17 20 21 20 13 9
3 5 3 0 1 1 2 -2 -3 -3 -2 -3 -4 -3 -13 -5 -0 -1 -2 0 3 4 5 6 8 10 9 9 7 6 7 7 10 10 13 20 21 22

GFSNE_sfc_temp_078.txt.gz
Temp
57 56 56 56 56 57 56 57 57 50 50 54 54 56 58 59 58 59 58 56 52 51 51 52 54 55 56 57 58 59 60 61 62 63 63 62 63 63
57 57 57 57 57 57 58 58 57 58 55 58 56 57 56 57 58 58 59 55 52 50 50 50 51 53 54 55 55 56 57 58 59 60 60 61 62 62
58 57 57 59 58 58 58 59 58 58 56 61 62 60 55 57 59 59 58 59 59 51 50 50 50 50 50 51 52 53 54 55 56 57 57 59 60 60
58 58 58 59 58 59 58 58 58 59 57 56 61 61 57 59 59 59 60 60 60 56 51 50 49 48 48 48 48 49 50 51 51 52 53 54 56 57
59 59 58 59 58 58 58 58 57 58 58 57 57 61 60 59 55 55 57 58 59 56 50 49 49 49 48 47 47 47 47 47 47 47 48 48 50 53
59 60 60 59 59 59 59 58 58 57 56 55 55 56 57 59 56 55 54 54 54 57 54 53 53 50 48 48 47 46 46 46 46 46 45 44 43 45
59 59 59 58 53 56 61 59 58 56 55 55 54 55 55 55 55 57 55 57 57 58 56 56 54 54 53 47 49 46 45 45 44 44 43 41 40 41
57 59 59 50 51 47 46 48 57 58 55 55 55 54 55 56 57 56 55 53 51 59 56 55 47 52 49 47 45 43 43 43 42 42 41 40 39 39
58 59 59 59 51 57 49 44 44 44 47 57 55 54 54 55 55 54 54 54 53 46 42 41 38 37 39 41 41 40 40 40 40 40 39 39 38 38
58 56 48 49 52 45 53 55 53 48 39 44 48 42 34 34 38 42 39 34 34 33 34 33 34 32 36 38 39 39 38 38 37 37 37 37 37 37
37 35 35 35 35 38 39 39 35 31 33 34 33 32 32 33 33 37 34 37 35 30 29 32 31 31 31 30 33 35 34 34 34 34 34 34 33 33
32 32 33 33 34 35 35 35 29 28 28 28 28 29 29 29 30 29 30 30 30 26 28 28 29 30 27 29 28 30 30 31 32 32 32 32 32 31
30 30 30 32 32 33 32 30 28 28 27 27 27 27 26 26 26 26 26 26 25 23 26 29 26 28 27 27 28 28 28 28 28 29 30 30 31 31
26 27 28 30 30 30 28 29 29 27 26 24 22 22 22 23 24 26 25 25 26 24 25 26 25 25 25 25 24 27 28 28 28 28 28 29 30 30
27 28 28 28 27 26 27 26 25 24 23 21 20 20 21 22 24 24 26 26 24 24 25 23 24 25 25 23 23 24 24 26 26 25 26 26 26 27
23 23 24 24 22 22 22 22 22 21 21 20 20 21 21 20 19 21 20 22 20 20 25 25 25 25 23 24 24 22 22 21 23 23 24 24 25 26
21 21 19 19 18 18 18 18 19 19 17 18 18 18 18 19 17 19 19 19 16 16 17 21 23 25 24 23 19 19 19 19 21 21 22 20 21 23
18 15 15 15 15 16 15 15 15 15 15 16 16 16 15 15 16 16 17 16 15 16 16 17 17 17 19 21 23 18 17 17 19 20 20 16 17 21
13 12 11 12 13 14 14 13 11 13 14 12 11 11 12 13 13 13 13 14 14 14 15 16 15 13 8 6 15 22 15 16 16 15 17 16 15 17
11 9 8 9 10 9 9 9 8 7 7 7 7 6 7 9 9 9 10 9 11 12 12 13 12 12 9 7 8 13 19 16 14 14 14 17 18 21
8 8 7 7 7 6 3 2 -0 2 1 0 0 1 -1 5 5 6 6 5 7 9 8 8 11 14 15 14 7 7 13 19 18 15 15 14 13 15
4 5 5 4 2 3 -2 -4 -1 -1 -1 -0 -4 -6 -6 1 1 1 2 3 6 7 8 10 12 13 12 9 7 7 10 13 16 18 19 18 13 9
-2 2 -1 -2 -1 -2 -0 -5 -6 -6 -5 -5 -5 -4 -10 -4 -1 0 1 2 4 5 6 6 8 10 9 9 7 7 7 8 11 11 14 19 19 21

GFSNE_sfc_temp_084.txt.gz
Temp
67 68 68 67 69 68 64 64 66 59 62 67 66 70 72 75 70 71 69 61 52 51 51 52 54 55 56 56 57 58 60 60 61 62 63 64 64 64
60 61 65 67 68 65 68 62 60 56 53 65 67 69 71 69 65 66 67 60 53 50 49 49 50 52 53 54 55 55 56 57 58 59 60 61 62 63
60 60 59 61 60 60 61 58 56 56 54 58 62 64 67 63 66 68 64 64 65 52 51 50 50 50 50 51 51 52 53 54 55 56 57 59 60 61
59 59 59 59 58 59 58 57 57 58 56 54 59 60 59 63 64 64 66 68 70 63 51 50 50 49 48 48 48 49 50 51 51 52 54 55 57 58
61 59 60 59 59 60 58 58 58 59 58 55 56 61 62 63 65 69 70 70 75 64 54 51 50 49 49 49 48 48 48 48 48 48 49 50 51 53
60 61 60 61 60 60 58 59 58 59 59 58 59 64 65 68 68 66 67 71 71 74 65 58 55 53 49 50 49 49 48 48 48 47 46 45 45 47
62 64 64 61 54 58 62 61 63 61 59 59 60 61 64 65 62 64 61 63 64 65 65 65 66 68 56 44 45 44 43 45 46 46 46 45 44 44
61 62 63 53 53 45 46 46 51 58 57 56 56 55 56 58 59 58 58 56 53 42 45 54 43 38 38 39 39 40 40 41 41 41 41 41 41 41
42 43 46 45 41 44 42 36 36 35 35 42 45 41 37 36 36 39 43 39 38 36 39 37 37 33 35 36 37 38 38 38 38 37 37 37 37 37
36 36 36 36 37 37 43 36 33 33 33 33 31 30 30 32 33 36 37 37 35 33 31 37 34 31 33 33 35 35 35 35 35 35 35 35 35 34
33 34 34 33 34 38 39 32 31 29 31 32 32 31 32 32 32 36 32 33 34 29 29 30 32 31 31 32 33 33 33 34 34 34 34 34 34 33
32 32 33 33 33 34 33 31 27 26 28 29 29 31 32 31 32 31 32 32 32 32 31 32 34 34 33 35 35 35 35 33 33 33 33 33 33 36
31 31 32 32 32 33 32 32 30 31 31 32 32 33 33 32 32 32 31 32 32 31 30 32 33 34 34 34 35 35 35 35 36 36 34 32 32 31
30 31 30 30 30 31 32 32 33 33 33 32 31 30 30 30 30 31 30 30 31 29 31 31 32 32 33 34 33 36 36 34 34 33 33 33 33 32
30 29 30 30 31 30 29 30 31 32 31 30 29 29 30 30 32 32 33 33 34 34 33 34 33 33 33 31 31 33 32 35 36 33 33 32 32 33
31 31 30 30 30 30 30 30 30 30 30 29 29 31 33 32 31 33 32 33 33 33 35 33 34 33 32 34 33 32 33 30 34 33 32 31 32 33
31 32 31 31 30 30 29 28 29 29 28 28 28 29 30 31 30 31 31 31 29 29 29 32 33 33 33 30 29 32 30 30 32 31 29 28 30 31
30 28 27 27 27 27 27 26 26 25 26 27 26 27 27 26 27 28 29 28 27 28 28 29 29 29 32 29 27 28 28 28 30 30 30 26 28 32
28 26 25 25 25 26 26 25 23 23 24 24 24 23 24 25 25 25 25 25 25 26 28 28 27 24 21 21 28 24 23 24 25 26 28 27 25 28
26 24 23 23 24 23 23 22 22 21 21 21 21 20 20 22 22 22 23 20 21 24 25 27 25 22 19 18 18 24 26 23 23 22 23 26 27 28
23 23 22 22 22 22 20 20 18 18 17 18 19 18 17 20 19 19 20 17 17 22 21 22 24 20 25 25 20 23 26 27 25 22 22 21 21 23
21 21 21 20 20 20 19 18 19 17 17 17 16 16 16 18 17 17 18 17 19 19 21 23 25 24 23 21 19 19 22 25 26 26 25 24 21 16
19 20 19 18 19 18 19 17 16 16 15 14 15 15 14 15 16 17 17 17 18 17 19 18 22 23 21 21 19 19 20 21 24 24 26 27 26 25

GFSNE_sfc_temp_087.txt.gz
Temp
65 64 66 68 70 71 72 71 68 62 64 68 69 73 73 73 69 71 71 62 53 51 51 52 54 55 56 56 57 58 59 61 61 62 62 63 64 64
62 63 66 68 67 65 70 67 66 64 61 66 69 67 72 70 69 67 71 59 53 50 50 50 51 53 54 54 55 55 56 57 58 59 60 60 61 62
60 61 61 63 64 67 66 68 66 63 59 63 65 63 62 60 64 63 63 64 65 53 50 49 49 50 51 51 51 52 53 54 55 56 57 59 60 61
60 59 59 58 58 60 60 60 60 61 57 55 60 61 60 61 61 62 64 67 65 61 52 51 51 49 50 49 49 49 50 50 51 52 53 55 57 58
60 60 59 59 59 59 59 58 59 58 57 56 56 60 63 63 62 62 63 64 68 63 54 51 51 50 50 49 48 48 48 48 47 47 48 49 50 53
61 62 62 59 60 61 60 58 59 57 57 56 56 58 60 65 64 63 64 68 68 74 66 59 55 50 43 43 43 43 43 45 45 46 45 44 44 46
59 60 61 58 52 55 60 60 60 58 57 56 55 57 58 59 59 61 60 62 65 50 51 51 45 43 40 41 41 41 41 42 42 42 42 41 42 42
54 52 51 44 43 38 37 38 38 45 49 52 53 53 53 40 39 42 44 44 46 40 42 44 40 36 36 36 37 39 39 39 39 39 39 39 39 38
40 41 43 42 40 43 36 35 34 34 33 38 39 32 33 32 33 37 40 40 40 34 37 39 37 33 33 34 36 36 37 37 37 36 36 36 36 36
35 35 36 36 37 39 36 32 31 32 32 32 31 30 31 32 32 34 36 35 35 32 31 34 34 31 33 34 35 36 36 36 36 36 36 35 35 35
33 34 34 33 35 38 34 30 29 28 32 33 33 33 34 34 34 35 33 35 33 31 31 31 34 33 33 33 34 35 35 35 35 35 35 35 35 35
32 32 33 33 35 35 33 31 28 29 32 32 32 33 34 33 33 32 33 32 33 33 31 29 33 34 33 36 35 35 36 34 34 34 34 34 33 35
31 30 32 33 33 34 34 32 31 33 32 33 33 33 33 33 32 32 32 31 30 30 31 31 32 33 33 33 35 36 35 35 35 37 37 35 33 32
30 31 31 32 32 32 32 33 33 34 33 33 32 31 31 31 33 33 32 32 33 30 33 33 31 32 31 32 32 37 37 37 37 36 36 36 36 36
31 31 32 32 32 31 31 32 32 32 32 31 30 30 32 33 34 34 36 37 38 37 36 35 33 33 33 32 32 34 34 36 38 36 35 34 33 34
32 32 31 32 32 32 32 32 32 31 31 30 31 32 34 34 33 34 33 34 34 34 37 36 35 33 31 32 32 32 34 31 35 34 33 32 33 33
32 33 32 32 31 31 31 30 30 30 29 30 29 30 30 30 31 32 31 32 30 30 31 34 35 34 34 31 28 31 30 30 32 31 30 29 31 33
32 29 28 29 28 29 28 28 27 26 28 28 27 28 28 28 28 30 30 28 28 29 29 31 30 29 30 30 27 27 27 27 28 28 29 27 27 31
29 28 27 27 27 27 27 26 25 25 26 26 25 24 24 26 26 26 26 25 24 27 28 30 28 25 19 18 28 28 25 25 25 25 26 26 24 26
28 26 25 26 26 25 25 23 23 22 23 23 22 21 21 23 23 23 23 20 21 24 25 28 27 23 18 16 18 24 30 25 24 23 23 25 26 28
25 25 24 25 25 25 22 22 21 20 20 20 21 20 19 21 20 21 21 19 19 23 21 23 25 23 26 26 21 22 26 29 28 24 24 21 21 22
24 23 23 23 22 22 22 20 21 20 19 19 18 18 17 19 18 18 19 18 19 20 20 23 25 26 24 22 20 20 23 26 28 29 29 27 22 16
21 22 22 21 21 21 21 19 18 18 17 17 17 16 16 16 18 18 18 18 19 18 19 18 21 23 22 22 21 20 20 21 24 23 25 28 27 27

GFSNE_sfc_temp_090.txt.gz
Temp
60 60 61 61 63 63 63 62 59 54 55 59 59 65 66 65 63 65 64 55 51 51 51 52 54 55 56 57 58 58 60 61 61 62 62 63 63 64
60 59 60 61 61 61 63 61 59 57 54 61 60 61 63 66 63 63 63 58 53 51 50 50 51 53 54 54 55 55 56 57 58 59 60 60 61 62
57 57 58 59 58 59 60 60 59 58 55 58 60 59 58 58 61 60 60 60 61 51 49 49 49 49 50 51 52 53 54 54 55 57 58 58 59 61
56 56 56 57 57 58 58 58 58 59 55 53 57 56 56 58 58 59 63 65 65 59 53 51 50 49 48 48 48 48 48 49 49 51 52 54 56 57
56 56 57 56 56 56 56 56 56 56 56 55 55 57 57 57 59 59 59 60 64 58 53 50 48 47 45 43 43 43 44 45 45 45 46 46 48 49
57 58 58 57 57 57 57 56 57 56 55 54 55 56 58 60 58 58 57 59 59 63 49 44 43 42 42 42 42 42 42 42 43 42 41 40 41 43
57 58 56 48 42 45 55 57 56 55 55 55 54 55 56 55 50 45 47 49 45 42 48 45 43 41 39 39 40 40 40 40 40 40 40 40 39 39
48 48 44 42 38 36 36 35 37 43 46 47 49 43 41 38 38 39 41 43 42 37 40 42 40 35 35 36 38 38 39 39 39 39 38 38 38 37
38 40 41 41 41 37 35 34 34 34 33 39 34 32 32 32 33 36 38 38 38 33 35 36 36 32 34 35 37 38 38 38 38 38 38 37 37 37
35 35 35 36 38 36 34 32 31 32 32 32 31 30 31 32 32 34 35 35 33 31 31 32 32 29 31 31 37 37 36 36 36 36 36 36 35 37
33 33 34 33 35 36 33 30 29 29 34 35 35 34 34 34 33 32 31 33 32 29 27 28 33 32 32 32 33 36 36 36 36 36 36 35 35 35
31 32 34 33 34 34 32 31 29 30 31 32 32 33 33 33 33 28 29 29 30 29 23 27 31 31 30 33 32 28 28 36 36 35 36 37 36 26
29 29 31 34 34 34 34 32 31 33 32 31 31 31 30 30 26 25 24 23 25 25 23 27 29 29 29 30 33 29 26 26 26 30 37 36 36 34
28 29 30 33 33 33 32 33 33 32 32 30 29 26 22 22 23 24 24 24 23 23 24 23 21 21 20 22 23 27 27 25 25 27 25 32 33 34
29 31 32 33 32 30 32 32 27 29 29 27 23 19 20 22 23 25 27 27 27 29 31 29 23 23 20 18 19 23 25 24 24 24 25 23 22 23
30 31 30 30 26 24 26 26 25 23 22 19 18 20 22 23 22 23 22 24 23 25 31 30 28 26 22 24 24 22 24 22 25 25 25 25 25 25
31 30 29 27 24 23 23 23 22 22 21 19 19 20 21 23 23 23 25 23 19 20 20 25 28 28 26 27 20 23 22 22 23 24 24 22 23 23
28 25 23 21 21 20 19 19 20 19 20 21 18 20 21 20 22 23 22 19 18 21 22 23 21 22 24 25 28 22 20 21 22 23 23 19 19 23
24 22 20 19 20 21 20 19 17 18 22 18 16 15 17 20 19 20 20 19 18 19 21 23 22 18 9 4 21 28 19 21 21 20 21 20 18 20
22 20 18 18 19 19 19 17 16 14 13 15 12 11 12 16 14 16 17 11 15 18 20 22 20 19 10 4 8 18 29 21 19 19 19 21 22 27
20 19 16 16 17 18 12 12 11 8 8 8 11 12 8 13 11 12 12 11 10 17 15 17 20 20 23 19 6 9 17 29 27 21 21 19 18 18
16 16 16 15 13 13 12 8 8 10 7 10 9 5 4 9 9 7 8 7 13 13 15 18 20 20 20 18 15 11 16 19 25 27 27 24 17 12
13 15 13 10 11 12 13 11 9 9 9 8 8 7 3 8 9 9 9 11 12 13 14 12 15 16 16 16 15 13 14 15 19 16 18 24 25 25

GFSNE_sfc_temp_093.txt.gz
Temp
61 60 59 60 60 61 60 60 56 51 55 57 57 61 62 62 61 61 62 58 52 51 51 52 54 56 56 57 58 59 60 61 62 62 62 62 63 64
60 60 59 59 59 59 59 59 57 55 53 57 58 59 62 63 62 63 62 56 52 50 50 50 52 53 54 54 55 56 57 58 59 59 60 60 61 61
59 59 59 58 57 57 58 58 57 57 53 56 58 59 59 59 59 59 58 60 59 50 49 49 49 50 50 51 51 52 52 53 54 55 56 57 58 59
59 58 57 57 56 56 56 57 57 57 55 53 56 57 57 57 59 59 61 63 61 57 51 47 46 46 45 45 45 45 45 46 46 47 48 50 52 53
56 56 56 56 55 55 56 55 56 55 55 54 54 56 56 56 57 57 58 59 61 56 44 43 43 43 43 42 43 43 43 43 43 42 42 42 43 45
55 55 55 55 55 55 55 55 55 55 54 54 54 54 56 57 56 55 54 50 48 53 45 42 42 41 41 41 41 41 41 41 41 41 40 39 39 41
55 54 47 45 41 43 55 55 55 54 54 53 53 54 53 46 45 44 46 47 40 40 45 43 40 39 39 39 40 40 40 40 40 40 40 39 39 39
46 44 42 39 37 36 36 35 36 45 50 49 44 43 38 37 38 39 41 42 42 35 38 37 38 34 35 37 38 39 39 39 39 39 38 38 38 38
39 41 41 39 38 36 35 34 34 34 34 39 34 32 32 32 33 37 37 37 34 31 33 34 35 32 34 36 38 38 38 38 37 37 37 36 37 37
35 36 38 38 36 35 34 32 32 32 32 32 31 30 31 32 33 35 36 32 32 29 29 31 31 29 32 30 37 38 37 37 37 36 36 36 36 36
34 34 34 34 35 36 33 30 30 31 34 35 34 34 34 34 33 33 30 33 31 27 21 27 31 23 31 31 31 37 36 36 36 36 36 38 37 34
32 32 33 33 33 33 32 31 29 30 30 30 30 31 30 29 32 25 22 24 21 23 20 26 29 25 23 32 30 28 23 34 36 37 36 37 36 24
29 30 32 34 35 35 34 32 31 32 30 29 24 22 22 22 22 23 22 22 20 15 20 18 24 17 17 22 24 30 22 24 23 27 34 35 35 33
28 29 31 34 34 33 32 33 33 32 29 23 20 18 18 21 21 19 19 19 17 19 20 20 16 17 14 15 17 23 23 23 23 25 22 29 30 32
30 31 32 31 30 29 30 29 25 23 21 20 18 17 13 14 20 23 25 24 24 28 31 27 21 22 18 15 16 19 21 22 22 21 22 23 23 24
29 29 27 27 25 24 24 24 23 23 21 19 18 14 18 21 20 22 21 23 22 23 29 28 27 25 20 23 23 21 21 19 21 23 23 20 21 21
27 26 25 24 22 21 21 21 20 20 19 18 17 17 19 21 21 22 23 21 16 17 18 25 27 26 24 24 19 20 20 20 21 22 23 20 19 20
24 21 20 20 19 19 18 18 18 18 19 19 17 17 17 19 20 21 20 17 15 18 18 21 19 19 22 22 26 19 19 19 21 22 23 18 18 21
20 19 18 17 18 19 18 17 15 16 19 16 15 14 14 17 16 17 17 17 15 16 18 20 19 16 6 4 18 27 19 19 19 18 20 19 16 20
19 17 15 15 17 16 16 15 14 13 12 14 11 8 7 12 10 12 13 7 12 16 16 18 17 16 8 1 5 15 27 20 16 16 17 20 20 25
18 16 15 15 16 15 10 10 6 3 4 3 4 6 0 7 5 8 8 6 7 14 12 13 16 17 19 17 4 7 14 25 23 19 19 15 14 15
14 14 14 12 10 12 9 -3 4 2 2 4 -3 -3 -0 3 4 4 6 6 9 9 12 14 16 17 16 13 10 6 13 15 21 24 23 21 13 9
9 13 9 4 4 3 7 4 4 1 0 0 1 2 -3 6 5 4 7 8 8 9 10 10 11 14 12 13 11 10 11 11 15 13 14 21 22 23

GFSNE_sfc_temp_096.txt.gz
Temp
60 60 61 60 60 61 59 60 56 51 54 55 57 59 60 60 59 58 60 54 51 50 50 52 54 55 56 57 58 59 61 61 62 62 62 62 63 64
60 60 60 60 58 58 60 57 57 55 52 57 57 58 60 60 58 61 61 55 50 50 49 50 50 52 53 54 55 55 56 57 58 59 59 60 60 60
60 60 59 60 58 57 57 57 56 56 53 54 57 58 57 58 59 58 59 60 59 50 49 49 48 48 48 48 49 50 51 51 52 52 52 53 55 56
59 59 58 58 57 56 56 56 55 56 55 54 55 56 57 58 58 57 59 60 58 48 44 44 44 43 43 43 44 44 45 45 45 45 46 46 48 48
57 58 58 58 56 55 55 55 55 55 55 54 53 55 56 55 56 56 57 57 50 45 43 42 42 42 42 42 42 43 43 42 42 41 41 41 42 44
56 56 57 57 55 55 54 54 54 54 54 53 53 53 54 55 54 52 52 47 46 48 42 41 41 42 42 42 42 42 42 41 41 40 40 39 39 40
49 48 45 44 43 46 54 54 54 53 53 53 52 52 51 47 48 44 47 45 37 38 41 40 39 39 39 40 40 40 40 40 40 40 39 39 38 38
44 41 40 39 37 37 37 36 37 51 52 52 50 48 39 38 39 40 42 42 40 34 38 35 37 34 36 37 38 38 38 38 38 38 38 38 37 38
41 41 39 38 37 36 35 35 34 34 34 42 38 35 34 33 35 38 38 37 32 30 33 32 34 32 35 37 38 38 38 38 37 37 37 37 37 36
36 39 37 35 35 35 34 32 32 32 32 32 31 30 31 32 34 36 35 31 30 29 28 31 31 26 32 32 38 38 37 37 37 37 37 37 37 36
34 34 34 33 35 37 33 31 30 30 34 34 34 33 33 33 34 34 32 32 29 21 20 27 22 22 31 31 32 37 37 37 37 37 37 37 36 34
32 33 33 33 34 34 32 31 28 28 29 29 28 28 29 30 31 26 22 23 26 16 20 25 21 18 19 32 26 27 22 32 34 35 35 35 34 23
30 30 32 34 34 34 33 31 29 30 28 26 25 25 26 24 24 24 22 23 19 15 19 19 13 12 12 15 18 24 20 20 20 23 30 31 32 30
28 29 30 31 32 31 31 32 31 28 25 23 22 21 21 21 22 22 20 20 20 20 19 19 16 16 13 13 15 21 19 19 20 22 21 27 28 29
28 28 28 29 29 28 29 28 25 23 22 19 18 18 15 15 21 24 26 26 26 28 30 26 21 22 17 14 15 18 20 22 21 21 22 21 21 22
26 25 25 24 23 22 22 23 21 20 19 19 19 20 23 23 21 22 21 21 20 22 28 27 26 25 20 22 22 20 21 18 21 21 22 21 21 21
25 24 22 21 19 19 19 20 20 21 18 18 18 18 19 21 21 22 21 19 16 16 18 23 25 25 24 24 18 19 18 19 19 21 22 19 18 19
22 19 18 18 17 17 17 17 18 18 19 18 17 17 17 18 19 19 19 17 15 17 18 19 18 18 20 22 25 18 17 17 19 21 21 16 16 20
19 17 16 17 17 18 17 16 14 16 18 15 12 12 14 16 16 16 15 15 15 16 17 19 17 14 4 -1 17 25 16 18 17 16 17 16 15 18
18 16 15 16 17 16 16 14 13 12 12 12 9 7 6 11 11 12 12 8 11 15 15 15 14 13 6 -1 2 11 24 17 15 13 15 18 17 23
16 15 14 14 14 13 10 9 8 5 4 3 4 5 1 8 5 7 8 5 7 12 10 10 13 15 17 13 0 3 12 22 21 16 16 12 11 12
12 12 11 10 9 9 4 3 4 3 4 4 -1 -1 -2 4 2 3 2 1 6 7 10 12 14 15 13 11 8 2 10 12 18 21 21 19 11 8
8 8 5 3 4 4 7 3 1 -0 -1 -1 -2 -2 -11 -2 0 -1 -1 1 5 5 8 8 10 12 10 11 8 7 8 8 11 10 12 19 21 21

GFSNE_sfc_temp_102.txt.gz
Temp
60 60 60 60 60 60 61 60 57 51 52 54 53 59 60 60 59 59 60 53 51 51 51 52 54 55 56 57 57 58 59 60 60 60 60 61 61 62
60 59 60 60 59 58 59 59 58 56 52 56 57 57 60 60 58 59 59 54 50 49 49 49 50 52 52 53 53 54 55 55 56 56 57 57 58 59
59 59 59 60 58 59 59 58 57 56 53 53 57 57 57 58 57 57 57 57 50 47 47 47 47 47 48 48 49 50 50 51 51 51 52 52 53 53
58 58 58 59 58 59 58 57 57 57 54 52 53 54 55 58 57 57 56 51 47 44 44 44 44 44 44 44 44 44 44 45 45 46 47 48 48 49
57 57 57 58 58 57 58 57 57 57 56 53 52 53 53 55 55 52 48 46 46 44 42 42 43 43 43 43 43 42 42 42 41 41 41 42 43 44
51 53 55 57 59 59 57 58 57 55 56 54 53 53 54 54 55 50 46 45 42 43 42 41 42 42 42 42 42 42 42 41 41 40 39 39 39 40
45 44 41 43 47 51 57 57 56 55 55 53 53 52 52 52 51 50 45 40 38 41 39 39 39 39 39 40 41 40 40 40 40 40 39 38 38 38
42 41 40 39 37 37 38 36 43 55 54 53 52 51 49 47 45 47 40 38 37 36 36 34 37 35 36 36 38 39 39 39 39 39 38 38 37 37
38 38 38 38 37 36 36 35 35 34 35 49 49 44 41 38 41 40 41 39 33 31 35 31 34 32 34 36 38 38 38 38 38 38 37 37 36 35
35 35 35 34 35 35 34 32 32 32 32 33 33 32 33 34 35 38 33 30 30 28 30 29 32 31 32 33 37 38 37 38 38 37 37 35 34 33
34 34 33 33 34 36 32 29 28 27 32 33 32 32 33 34 35 35 32 32 27 24 25 29 27 30 31 28 30 36 36 35 35 35 34 34 33 31
32 32 34 33 33 32 30 28 25 25 27 27 27 27 28 28 30 30 33 28 25 24 25 26 25 26 27 28 26 27 28 32 32 32 32 32 32 30
29 30 31 32 32 32 30 27 25 26 25 26 25 25 25 25 25 26 26 27 23 21 24 25 24 24 24 25 27 26 26 26 27 28 29 30 30 30
26 28 29 31 31 30 28 28 27 25 24 23 22 21 22 23 25 25 25 26 26 25 28 28 24 25 24 23 23 26 26 26 27 27 27 28 28 28
25 26 27 27 26 26 26 25 24 23 22 21 20 20 21 24 26 27 27 28 28 28 29 28 26 26 25 22 22 22 23 26 27 25 25 25 25 25
23 23 23 23 22 22 22 22 22 21 21 20 20 22 23 23 22 24 23 24 23 23 27 27 27 26 23 23 23 21 23 20 24 24 24 24 24 24
22 21 20 20 19 19 19 19 20 20 19 19 20 20 20 20 19 22 22 21 19 18 18 21 25 26 26 25 20 21 20 20 22 21 21 19 20 22
20 17 16 17 17 17 16 16 17 17 17 18 18 18 18 18 18 19 20 19 17 17 17 18 18 19 21 22 25 19 19 18 19 19 19 15 16 21
17 16 15 15 15 16 15 15 13 14 16 14 14 15 17 17 17 16 17 18 16 16 16 17 16 14 10 9 17 23 16 17 16 15 17 16 15 17
16 14 14 14 15 14 13 12 11 10 11 11 10 11 12 14 14 13 14 13 15 15 14 14 14 13 10 8 9 15 20 16 14 13 14 16 17 20
14 13 12 12 12 11 8 6 5 5 5 5 5 6 6 10 9 10 11 9 10 12 10 10 13 15 17 14 8 9 14 18 17 15 15 12 12 14
10 10 10 10 9 6 4 3 2 3 4 5 0 -0 2 6 5 6 7 8 9 9 10 12 14 14 13 11 8 6 9 12 15 17 18 17 13 9
5 6 5 4 4 4 6 2 2 1 1 1 1 1 -3 3 4 5 5 7 7 7 8 8 10 11 10 10 7 7 7 8 10 10 13 17 19 19

GFSNE_sfc_temp_105.txt.gz
Temp
61 62 62 63 65 65 62 60 59 53 53 55 55 60 60 62 64 65 66 55 51 51 51 53 55 56 56 57 58 59 60 60 61 61 61 61 61 62
61 61 61 62 62 63 63 64 62 59 55 59 57 58 60 62 63 66 66 56 50 49 49 50 51 53 53 54 54 55 56 56 57 57 57 57 58 58
60 60 60 62 60 60 62 62 60 62 59 56 57 57 58 60 64 65 65 65 58 48 47 47 47 48 49 49 50 52 52 52 53 53 54 55 55 54
63 64 63 61 60 59 59 58 59 59 60 53 57 56 57 59 64 63 60 58 53 45 45 45 44 44 44 44 45 45 46 46 47 48 49 50 51 51
62 62 58 58 58 58 58 58 59 58 58 55 53 55 55 58 57 53 50 48 47 44 43 43 43 43 43 43 43 43 43 42 42 42 43 44 45 45
53 49 47 47 51 58 57 57 58 57 57 55 54 54 55 56 54 47 45 46 44 45 43 42 43 43 42 42 42 42 42 41 40 40 39 39 40 41
47 45 42 40 40 43 57 57 57 56 56 55 54 53 53 53 51 49 45 41 40 42 40 40 40 40 40 41 41 40 40 40 39 39 38 38 37 38
44 42 42 39 39 37 37 37 38 56 55 55 54 53 53 53 49 47 40 39 37 40 36 35 37 34 35 37 38 38 37 37 38 37 37 36 36 36
41 42 40 39 38 37 36 35 35 35 35 48 53 51 47 44 47 43 43 41 35 34 36 31 33 32 35 36 37 37 37 37 37 37 36 35 35 35
36 37 37 35 35 35 33 32 32 32 33 33 33 32 33 35 38 40 35 31 31 30 33 30 32 31 33 35 38 37 37 37 37 36 35 34 33 33
35 35 35 34 35 36 34 30 29 28 32 33 33 32 33 34 36 37 34 34 29 27 28 30 30 30 28 28 32 35 33 33 34 34 34 34 33 32
32 32 33 32 33 33 31 29 25 26 27 28 27 28 28 29 31 31 34 31 28 27 26 27 27 30 24 26 27 29 30 32 33 32 32 32 32 38
29 29 31 32 32 31 30 28 26 28 27 27 26 26 26 25 25 26 27 28 26 23 25 27 26 28 29 26 28 31 34 33 35 36 31 30 30 31
25 27 28 31 30 30 28 28 28 27 26 25 24 23 23 23 24 25 25 26 26 26 28 29 26 30 31 30 29 31 34 35 36 36 34 32 30 29
26 26 27 27 27 26 27 26 26 25 24 22 21 22 23 25 26 26 27 29 29 30 31 31 30 30 31 31 28 28 28 30 30 30 31 31 30 30
25 24 24 24 24 24 25 25 25 26 25 24 23 24 26 26 25 27 25 25 24 23 27 30 31 29 26 27 28 25 29 28 31 29 28 29 30 30
25 25 24 24 23 23 23 24 25 26 24 25 24 24 24 25 24 26 26 26 23 22 21 24 28 29 29 27 24 26 27 28 29 27 26 26 28 29
25 23 22 22 23 22 22 22 23 23 24 25 24 24 24 24 24 24 25 24 21 21 21 23 24 25 25 25 27 25 27 26 26 25 26 22 24 29
23 21 20 21 22 22 22 22 20 21 22 22 23 23 23 23 23 23 23 23 21 21 22 23 23 22 22 20 23 23 22 23 22 22 24 23 21 24
22 20 19 20 20 20 20 19 19 19 19 20 19 20 20 21 21 20 21 20 21 20 20 21 20 19 18 17 18 22 20 20 20 19 20 23 24 24
20 20 20 19 18 18 16 16 16 15 15 16 17 17 18 20 18 19 17 15 18 20 18 17 19 17 22 22 18 19 21 20 19 18 20 19 21 23
18 18 18 18 17 16 15 15 15 15 15 15 14 15 16 17 16 16 17 17 17 18 18 20 20 21 20 18 16 15 18 19 21 20 19 18 19 17
16 17 16 16 16 15 16 14 13 13 13 13 14 14 14 14 16 16 16 15 16 15 16 17 19 19 17 17 13 15 14 15 18 19 22 19 19 19

GFSNE_sfc_temp_111.txt.gz
Temp
70 71 72 72 73 71 71 67 63 55 57 65 65 67 65 64 62 63 62 53 51 51 52 54 56 57 58 58 59 60 62 62 63 63 63 63 64 64
69 68 68 69 69 70 71 69 68 64 60 68 71 72 66 64 61 63 62 53 50 49 50 51 53 55 55 56 57 57 59 59 60 61 61 62 62 62
67 67 67 69 68 67 68 68 66 66 61 67 71 70 67 64 62 62 62 61 57 49 49 49 50 50 52 52 53 54 55 55 56 57 58 59 60 60
66 66 68 68 68 68 67 67 66 67 63 62 68 66 65 62 61 59 60 61 61 48 48 48 48 48 48 48 49 49 50 50 51 52 53 55 57 57
67 66 67 68 66 66 66 64 66 66 63 61 61 62 65 60 59 57 51 48 48 45 44 45 46 47 47 46 46 46 46 46 46 47 48 48 50 52
64 65 63 62 62 62 61 63 63 62 60 58 58 59 59 60 57 49 46 46 44 46 43 43 44 44 45 44 44 44 44 43 43 42 41 41 42 44
56 54 47 43 39 40 49 53 56 57 57 57 56 56 55 54 49 49 45 41 41 42 41 41 42 42 42 44 43 42 42 41 41 41 39 39 39 39
48 46 43 41 38 37 37 36 36 42 50 55 56 54 54 55 52 47 41 39 36 41 36 33 37 36 38 39 40 40 40 40 39 38 38 37 37 36
45 45 43 42 42 43 37 35 34 34 34 39 47 45 50 54 51 46 44 43 37 36 37 32 33 32 34 37 38 37 37 36 35 35 35 34 33 33
36 38 37 37 37 39 36 33 32 32 32 33 33 32 33 34 47 48 44 34 34 34 35 30 32 31 32 34 36 36 35 35 34 34 33 32 32 32
33 34 34 33 35 37 34 32 30 30 33 33 32 32 32 34 38 40 36 36 32 31 32 32 30 27 28 32 33 35 34 34 33 33 32 31 30 31
30 31 33 32 33 33 31 29 26 27 28 28 28 28 29 29 31 32 36 37 32 30 30 29 28 28 24 27 29 31 32 33 32 32 31 30 32 32
28 28 30 32 32 32 31 29 27 29 28 27 26 26 26 25 26 27 29 31 28 25 29 32 30 28 26 24 27 28 28 28 29 29 31 31 31 31
25 27 29 31 31 31 30 30 30 29 28 26 25 24 23 23 24 25 26 27 29 28 31 32 30 29 26 25 24 28 29 30 31 33 32 33 32 32
28 29 30 31 31 30 30 30 30 29 26 25 24 24 25 26 27 27 27 27 27 28 30 32 32 30 31 29 26 28 28 30 36 35 34 34 33 34
31 32 30 30 30 30 31 31 31 31 30 29 29 29 30 30 29 29 26 25 24 24 28 30 31 31 29 30 30 29 33 27 31 31 31 32 33 34
31 32 31 31 30 31 31 31 32 32 30 30 30 30 30 30 30 32 30 29 25 24 24 28 31 32 31 30 27 28 29 29 31 30 30 29 31 33
31 28 27 27 27 29 29 29 30 30 31 32 32 32 31 31 31 32 32 29 27 27 27 29 27 25 26 28 28 29 30 30 30 30 30 27 28 33
28 28 27 27 28 28 28 28 27 29 31 30 30 29 30 31 31 31 31 30 29 29 30 31 30 29 25 22 25 25 28 28 27 27 29 28 27 30
28 27 26 27 27 26 26 26 27 27 27 28 28 28 29 29 29 29 29 29 29 29 29 30 29 29 28 25 23 23 23 26 26 26 26 29 30 30
27 26 26 26 26 26 25 25 24 22 24 25 26 26 27 28 26 26 24 23 27 29 26 25 24 20 28 27 22 23 23 23 23 23 24 23 24 28
27 27 26 26 25 25 25 24 25 24 24 24 23 24 25 26 25 25 26 26 26 26 25 26 27 28 27 25 23 21 25 25 27 25 24 22 22 20
24 25 25 25 25 25 25 23 22 22 21 22 22 23 22 23 24 24 24 23 24 23 24 24 25 26 24 23 20 22 21 22 25 25 26 25 24 24

GFSNE_sfc_temp_114.txt.gz
Temp
65 65 66 66 67 67 65 64 58 53 54 58 58 61 62 63 61 59 60 52 51 51 52 54 56 57 58 59 60 61 62 62 62 62 62 63 63 64
64 64 62 61 63 64 64 62 60 57 53 59 60 60 62 62 59 62 62 53 50 50 50 51 53 55 55 56 57 58 59 59 60 60 61 61 62 63
65 64 62 60 63 62 63 63 61 60 56 58 61 62 60 59 60 61 62 58 55 49 49 49 50 51 52 53 53 54 55 56 57 58 59 60 61 62
64 64 63 64 62 63 63 61 60 60 58 56 60 59 59 60 60 59 61 61 60 51 49 48 49 48 49 50 50 50 51 52 53 54 55 56 58 59
65 63 63 63 62 63 62 60 60 61 59 56 55 58 60 60 59 58 56 49 49 48 47 46 47 48 47 47 48 49 49 49 48 49 49 50 52 53
63 61 60 60 59 58 58 57 57 58 58 57 57 57 57 58 59 51 47 47 44 45 44 44 45 45 46 46 46 47 47 47 46 45 44 43 44 46
51 47 43 41 40 43 51 46 47 51 53 55 55 55 55 54 52 51 46 41 40 42 41 41 42 42 43 44 45 45 45 44 43 43 42 41 41 42
43 41 41 39 37 36 36 35 35 38 44 48 53 54 55 56 54 50 41 39 38 40 36 34 38 37 38 40 41 41 42 42 42 41 40 39 38 38
44 42 41 41 39 36 35 34 33 33 33 35 40 35 37 40 46 47 45 45 38 36 37 32 33 32 36 38 39 39 39 38 38 37 36 36 35 34
34 35 36 36 38 36 33 31 30 31 31 31 30 30 32 33 36 46 43 34 34 33 35 30 32 31 33 34 36 36 36 35 35 34 34 34 33 32
32 33 33 33 36 37 32 29 28 28 32 33 32 32 32 33 34 40 36 36 32 32 32 31 31 28 31 31 33 35 35 34 34 33 33 32 32 31
30 31 33 32 33 33 31 29 25 25 27 27 27 27 28 28 31 30 34 37 32 31 32 29 28 28 24 28 31 32 32 33 33 33 32 31 31 30
28 29 31 32 32 32 31 28 27 28 27 27 26 26 26 26 26 27 29 31 30 26 29 31 29 27 26 24 27 29 29 29 29 30 30 29 31 31
27 29 30 32 32 32 31 31 30 28 27 26 26 25 25 25 25 26 27 29 31 30 32 32 29 27 26 24 23 26 27 28 28 27 27 30 31 33
30 31 31 31 31 30 31 31 30 29 27 26 25 25 26 27 28 28 28 29 29 29 32 32 30 29 29 26 24 25 26 28 29 27 28 28 29 28
30 30 30 30 29 29 29 30 30 29 28 27 27 28 29 28 27 28 27 26 25 25 28 28 31 31 28 27 28 26 27 25 27 27 28 28 30 30
29 27 26 26 26 26 26 27 28 29 27 28 28 27 27 27 27 28 27 25 23 22 22 25 26 26 25 28 25 26 25 25 27 27 27 26 28 29
27 24 24 24 23 24 24 24 25 27 28 28 27 28 28 28 28 28 26 24 23 23 23 24 25 25 25 25 28 24 25 25 25 26 28 24 25 29
24 23 22 22 23 24 24 24 23 25 28 26 26 25 26 27 27 27 27 27 25 25 24 25 25 24 20 17 23 27 25 26 25 25 26 25 23 25
24 22 21 22 22 22 22 21 20 22 23 24 23 24 23 24 23 23 23 20 23 26 25 25 23 23 21 19 18 19 27 24 23 22 23 24 24 30
23 22 21 21 21 22 20 20 17 18 20 20 21 22 21 22 20 20 19 17 19 24 21 20 21 19 25 23 13 15 19 25 24 20 20 16 16 20
20 21 21 20 19 19 18 16 18 17 18 18 16 18 19 20 18 18 18 17 20 20 21 21 25 25 24 22 17 11 18 18 24 25 25 21 13 8
17 18 19 18 17 18 18 16 15 16 13 13 15 15 12 15 17 16 15 16 16 18 20 19 22 22 22 20 15 13 14 13 19 19 20 26 25 25

GFSNE_sfc_temp_117.txt.gz
Temp
66 65 64 64 64 62 64 63 59 53 54 55 55 59 62 62 61 60 61 54 51 50 51 54 56 58 58 59 60 61 62 62 62 62 63 63 64 64
65 65 64 63 61 61 60 61 60 56 54 56 57 58 60 60 58 60 59 53 50 49 49 51 53 55 56 56 57 58 59 60 60 61 61 62 63 63
65 64 62 61 61 60 60 59 60 59 57 55 57 58 57 58 58 58 59 59 55 48 48 49 50 51 52 53 53 55 56 56 57 58 59 60 61 62
65 63 62 61 60 60 60 59 60 60 57 55 56 56 56 58 58 58 58 60 59 50 48 48 49 49 49 49 50 51 51 52 53 54 55 57 59 60
65 63 64 61 59 59 61 60 61 61 59 56 55 55 56 58 57 58 57 54 53 50 47 47 47 48 48 48 48 49 49 50 50 50 50 51 53 55
64 63 63 61 60 60 61 60 59 59 57 58 56 56 57 57 57 53 49 47 46 46 45 46 47 47 47 47 47 47 48 49 49 48 47 46 47 49
51 48 47 48 50 54 56 53 55 54 54 54 54 54 54 54 55 52 52 42 40 42 41 40 43 44 45 45 48 47 46 46 46 46 46 44 44 46
42 40 40 40 40 39 38 36 41 48 49 50 52 52 53 53 53 49 42 40 41 40 36 34 38 37 38 41 43 44 44 44 44 44 44 44 42 42
43 43 40 40 36 35 34 34 34 34 34 40 43 35 38 35 36 46 44 42 39 35 36 32 33 32 35 39 41 41 41 41 40 40 40 40 39 38
34 37 38 36 36 35 33 31 30 30 30 31 30 30 31 32 35 40 42 33 34 33 35 31 32 31 32 34 38 38 38 38 37 37 36 36 36 35
32 32 34 32 34 35 31 28 27 27 32 33 32 31 31 32 34 38 36 36 32 32 32 32 30 29 30 31 33 36 35 35 35 35 35 34 33 33
31 31 32 32 32 32 29 28 25 25 26 27 27 28 29 29 31 30 33 36 32 32 32 30 29 29 25 28 31 31 32 34 34 34 34 34 32 30
29 29 31 32 32 31 31 28 27 28 27 27 27 27 27 27 27 28 30 33 31 28 31 32 30 28 27 25 27 29 30 30 30 30 32 31 32 31
28 29 31 32 32 32 31 31 30 29 28 28 27 26 26 26 27 28 29 30 31 31 32 32 29 27 26 24 23 26 27 27 28 27 27 29 29 29
29 30 30 30 30 29 31 31 30 29 28 26 26 26 27 28 29 29 29 30 29 28 30 31 30 29 29 25 24 25 25 27 28 26 27 27 27 28
27 27 27 27 26 26 27 28 28 28 28 27 26 27 28 28 27 28 26 27 26 25 27 27 30 30 27 27 27 25 27 25 27 27 27 27 28 29
26 25 24 24 23 24 24 25 26 27 26 26 26 26 27 27 26 27 26 25 23 23 23 26 27 27 27 29 25 25 25 25 26 26 25 25 26 28
23 21 20 20 20 21 21 22 23 24 25 26 25 26 26 26 25 26 25 23 22 23 23 25 26 26 26 25 27 25 25 24 25 26 25 23 23 27
20 20 19 19 20 21 20 20 20 22 25 23 23 23 24 25 24 25 24 24 23 23 24 25 26 25 21 17 22 26 24 24 23 23 26 25 23 25
21 19 18 19 20 20 20 19 19 19 20 21 20 21 21 21 21 21 22 20 21 23 21 22 21 22 20 17 17 20 29 24 23 23 23 24 24 29
18 19 18 18 17 18 16 16 14 16 16 16 17 17 17 18 18 18 18 16 19 22 18 18 20 19 25 22 12 14 19 27 24 19 19 15 15 19
14 16 16 15 14 15 16 11 12 12 13 14 12 13 13 15 13 14 15 15 17 18 20 21 24 25 23 22 16 10 18 19 24 25 25 22 15 9
5 11 14 12 11 11 13 13 9 9 9 9 9 11 9 10 13 12 12 13 16 16 18 18 21 22 21 19 17 15 15 14 19 19 20 26 26 26

GFSNE_sfc_temp_123.txt.gz
Temp
57 62 62 63 64 64 64 62 60 56 54 55 57 62 63 64 62 61 60 52 50 49 50 52 55 56 57 58 59 60 61 62 63 63 63 63 64 64
55 61 62 63 63 63 63 62 62 62 57 60 57 58 62 62 60 62 60 53 49 48 48 50 52 54 54 55 56 57 58 59 60 61 61 62 62 63
53 58 62 63 62 62 62 62 61 62 58 60 56 56 60 60 60 60 60 59 55 48 48 48 49 50 51 52 53 54 55 57 57 59 60 61 62 62
52 53 61 63 61 62 61 62 61 60 60 58 55 54 55 59 60 59 59 59 59 49 47 47 48 48 48 49 49 50 53 53 53 54 56 58 59 61
53 54 59 62 60 60 61 61 61 60 59 59 55 54 54 56 56 57 57 57 55 50 46 45 46 47 47 47 47 49 49 50 50 50 50 51 53 56
54 55 59 62 61 61 60 61 61 60 60 59 56 53 54 55 56 55 52 52 50 47 44 43 45 45 45 45 45 46 47 49 50 50 49 47 48 50
52 50 48 48 49 57 61 61 60 58 58 58 57 53 53 55 56 54 55 48 44 45 43 38 41 41 41 42 44 45 46 46 48 49 48 47 46 47
41 40 40 39 42 43 42 43 51 57 57 57 56 55 56 55 56 54 48 46 46 41 41 35 37 35 36 38 40 41 42 44 46 48 48 48 47 46
35 36 36 37 38 40 39 37 35 35 37 52 55 53 51 49 50 48 47 47 45 37 38 32 33 32 33 36 39 40 41 42 44 44 46 46 45 44
32 33 33 33 34 35 33 32 31 33 32 33 34 32 32 34 39 45 45 34 34 33 35 32 31 30 32 33 37 38 39 41 42 43 44 43 43 43
32 33 32 32 34 36 33 30 30 29 32 33 33 33 33 34 35 38 35 38 33 32 32 32 29 28 29 30 32 36 37 37 38 39 40 39 38 37
29 30 32 32 33 32 30 29 28 27 29 30 30 30 30 30 32 31 34 36 33 32 33 30 28 29 26 29 30 32 33 35 36 36 36 36 36 34
26 27 29 32 32 32 32 29 28 30 29 29 29 29 29 29 29 29 28 31 33 32 33 32 29 29 28 25 27 28 29 29 31 32 34 34 34 34
24 25 27 30 30 30 29 30 30 29 28 27 27 26 26 27 28 28 29 28 29 30 32 33 30 29 26 24 24 26 27 27 28 28 31 32 33 32
24 26 28 28 28 26 28 28 27 26 26 25 24 25 26 27 28 28 29 29 29 28 30 31 31 30 30 27 24 24 25 26 27 27 28 28 29 29
23 23 23 24 23 23 23 24 24 24 24 24 24 26 27 27 26 26 26 26 26 26 28 28 30 30 27 28 27 25 26 24 26 26 26 27 28 28
21 20 19 19 19 19 20 21 21 22 21 23 23 24 25 26 25 26 26 26 23 23 24 26 27 28 28 28 25 26 24 24 26 26 26 25 26 28
18 15 15 15 16 16 16 17 18 18 19 20 20 21 22 23 24 26 26 24 23 23 23 25 26 26 26 26 29 25 25 25 25 26 26 23 23 27
14 13 12 13 15 15 15 15 14 15 18 17 16 16 18 21 22 23 23 23 22 22 23 23 25 25 21 18 23 28 24 24 24 24 24 24 23 25
13 11 10 11 13 13 12 12 12 12 11 13 12 13 13 16 17 17 19 19 21 22 21 22 21 22 21 18 18 19 28 24 23 22 22 23 24 27
12 11 10 10 10 11 7 5 6 6 6 7 8 10 9 13 14 15 15 14 16 19 17 17 19 22 23 22 15 16 19 26 25 22 21 19 19 20
6 9 8 6 5 6 2 -1 2 2 3 5 5 5 6 9 10 11 12 13 15 16 17 18 22 23 22 19 13 11 17 17 26 27 27 23 18 15
-2 3 1 -1 -1 -1 4 -2 -3 -5 -2 -1 -0 2 3 6 8 9 10 12 13 13 15 15 19 19 19 18 15 13 13 12 16 16 17 26 26 26

GFSNE_sfc_temp_129.txt.gz
Temp
49 50 50 54 60 59 64 65 64 61 63 69 68 72 72 72 68 67 65 57 51 50 51 52 53 55 55 57 58 59 60 63 63 62 62 63 64 65
48 48 50 51 55 60 62 65 64 64 64 73 72 74 72 70 67 68 67 57 50 49 49 49 50 52 53 54 55 56 57 58 59 60 60 61 62 64
47 47 49 51 51 57 59 64 63 64 60 69 74 72 70 70 69 68 68 65 62 49 48 48 48 49 50 51 53 53 55 56 57 58 59 60 62 63
43 45 48 51 51 53 60 61 63 63 62 60 69 68 67 70 70 67 66 64 63 52 48 48 47 47 48 49 50 50 51 52 53 54 56 58 59 60
41 43 46 49 49 52 54 60 61 65 63 60 61 70 67 68 66 66 63 62 61 54 47 46 46 47 47 48 48 49 49 50 50 50 51 51 54 56
42 42 45 46 48 52 53 56 62 62 63 60 60 60 63 63 64 59 57 59 56 51 48 48 47 46 46 46 46 47 47 48 48 48 48 47 48 50
38 40 41 40 41 45 51 54 57 60 62 62 58 59 58 57 56 57 59 56 50 49 47 47 47 46 45 45 45 45 45 45 46 46 46 46 46 48
33 34 36 36 38 36 37 36 37 48 56 61 58 58 61 62 59 59 56 50 49 47 47 43 44 41 41 43 41 41 42 43 43 44 45 45 45 45
29 30 32 34 35 36 35 35 35 35 34 46 43 47 53 51 60 60 57 54 55 48 48 37 37 35 37 39 39 40 41 41 42 42 43 43 43 43
28 28 29 30 31 32 33 33 32 32 33 33 33 32 33 36 39 45 59 48 37 37 44 36 33 34 33 35 38 39 39 40 41 41 41 42 42 42
27 28 28 28 31 31 29 29 30 29 33 34 33 34 35 35 36 43 39 44 34 34 35 36 32 32 32 32 33 37 37 38 38 39 40 41 41 41
25 25 28 28 29 29 26 26 25 27 29 30 31 31 32 33 33 32 34 36 34 35 33 34 33 33 32 32 32 33 34 36 37 37 38 39 40 43
22 22 25 28 28 28 28 25 25 27 27 28 28 29 30 30 30 31 31 30 32 32 32 33 32 33 32 28 29 30 32 33 35 36 36 37 37 38
21 22 23 26 26 26 25 26 26 25 26 26 25 25 27 28 29 30 31 29 29 28 31 32 32 32 29 27 27 28 30 31 33 33 34 34 34 34
21 22 24 23 23 22 24 23 23 23 23 22 22 23 26 28 29 30 31 31 30 30 30 31 32 32 31 28 26 26 27 28 31 30 32 32 32 32
20 21 20 21 19 20 20 21 21 21 22 21 22 25 27 28 28 29 28 29 29 30 31 30 30 31 28 28 28 26 27 26 27 28 29 30 30 31
19 19 18 18 17 17 18 18 18 20 20 21 21 23 25 27 28 30 30 30 28 28 28 30 31 30 30 30 27 27 26 26 27 28 28 27 28 29
18 16 15 15 15 16 16 17 18 17 18 19 19 21 22 24 26 28 30 30 28 28 28 28 30 30 30 29 30 28 28 28 28 28 28 26 26 29
16 15 15 15 15 15 16 15 14 15 17 18 18 17 19 22 24 24 25 27 27 29 30 31 30 30 27 23 27 28 28 28 28 28 28 28 26 28
17 15 15 15 16 15 14 14 14 14 14 15 15 16 16 19 19 20 22 21 24 26 27 29 28 26 25 24 25 26 29 29 28 26 27 29 29 28
15 16 16 16 16 16 14 14 13 12 12 13 14 14 14 17 17 18 19 19 21 24 23 24 27 26 30 29 26 25 27 28 29 28 27 27 26 27
12 12 13 14 14 15 15 14 14 13 13 13 13 13 14 16 16 16 17 18 19 21 22 26 28 28 28 26 24 22 24 26 27 27 27 27 27 25
9 11 11 11 12 12 12 13 13 13 12 11 12 13 13 13 15 16 16 17 18 18 19 21 25 27 25 24 24 23 21 23 25 24 24 27 27 27

GFSNE_sfc_temp_132.txt.gz
Temp
47 49 50 52 56 62 61 57 61 61 66 73 74 78 75 77 71 72 73 60 51 51 51 52 55 57 57 58 59 60 61 62 63 63 64 65 65 65
46 46 49 51 52 54 61 63 65 63 64 75 78 80 79 78 73 75 76 61 51 49 49 50 51 53 54 54 55 56 58 59 59 60 61 63 63 62
44 45 46 49 49 52 53 60 65 67 64 70 77 77 77 77 77 76 73 75 73 50 48 49 49 50 50 51 51 53 54 55 57 58 59 61 62 61
41 42 44 48 47 50 51 53 60 66 66 65 71 73 74 74 75 75 74 76 76 57 49 48 48 47 47 48 49 50 51 52 52 54 55 57 59 60
39 40 42 45 46 48 49 51 54 62 68 64 66 71 73 74 70 71 72 72 73 58 48 47 47 47 47 47 48 48 49 50 50 50 51 52 54 56
36 37 41 42 43 46 46 50 53 54 62 65 65 66 69 70 68 68 63 64 64 61 53 51 49 47 46 47 47 48 48 49 49 49 48 48 48 50
32 34 35 36 38 38 43 47 49 51 55 62 63 62 64 65 62 61 62 63 61 56 55 52 52 51 51 46 50 48 47 47 48 48 48 47 46 47
29 30 32 34 36 36 36 35 35 39 44 51 59 62 64 65 62 61 59 58 52 51 53 51 50 49 49 51 47 46 45 45 46 46 46 46 45 45
28 28 29 31 32 34 34 33 33 33 33 37 44 35 41 37 42 45 57 60 59 59 53 47 42 41 41 41 40 41 42 43 44 44 44 44 44 44
27 28 28 28 29 29 30 30 30 31 32 32 32 32 33 34 40 42 41 46 45 42 46 42 36 36 35 38 39 40 40 41 41 42 42 42 42 43
25 26 27 27 29 30 27 26 27 27 32 33 33 33 33 34 34 38 34 39 38 34 33 36 33 32 33 33 36 38 38 38 39 40 41 41 41 41
25 25 27 26 27 28 26 26 25 27 28 29 29 31 32 32 33 31 30 33 35 36 32 34 33 33 33 33 34 34 33 35 37 37 38 39 40 42
22 22 24 27 27 27 27 25 24 27 28 29 29 29 30 31 32 31 32 28 27 31 31 32 33 33 33 32 31 32 33 33 34 35 37 37 37 41
21 23 24 26 26 26 24 25 26 27 28 27 27 28 29 30 30 31 32 32 32 30 31 31 33 34 34 31 30 30 31 31 32 32 32 33 34 34
25 24 24 24 24 24 25 24 24 24 24 24 25 26 29 31 32 32 33 33 33 32 32 31 31 31 31 30 29 28 29 28 30 31 31 32 32 34
25 25 23 24 24 23 24 24 23 24 24 23 24 27 30 30 31 32 32 32 31 31 32 32 31 31 31 30 29 27 28 27 28 29 30 30 31 32
25 24 23 23 23 23 23 23 24 24 24 24 24 25 28 29 30 33 33 33 31 31 31 33 33 31 30 30 29 29 28 28 29 29 28 27 28 30
24 22 21 21 21 21 21 22 23 22 23 23 23 24 25 26 27 29 31 30 30 31 32 33 33 34 32 30 29 29 30 30 30 30 30 27 26 29
22 21 20 20 21 21 21 21 19 21 23 22 22 21 23 25 25 25 26 27 28 31 33 33 32 29 27 27 29 29 29 30 31 30 32 30 29 29
22 20 19 20 21 21 21 21 21 20 20 21 20 20 21 23 22 23 24 23 25 28 29 32 31 28 26 24 26 29 29 31 30 29 30 30 29 29
19 19 19 19 19 19 18 19 19 19 18 19 19 19 19 21 21 22 22 21 23 25 25 26 30 31 35 34 28 28 29 29 29 30 30 30 28 29
16 17 17 17 15 16 16 16 17 18 18 18 17 18 19 20 19 20 20 20 22 23 24 27 31 32 32 30 27 25 27 28 29 28 27 27 28 28
12 14 15 14 14 14 14 15 15 15 15 16 17 17 17 17 19 20 19 20 21 20 21 23 27 30 30 29 26 27 24 26 30 27 27 28 28 28

GFSNE_sfc_temp_138.txt.gz
Temp
42 42 43 44 46 47 49 48 46 43 47 55 57 64 68 68 65 68 66 61 54 53 54 55 57 58 59 60 60 61 63 63 63 64 64 65 65 66
40 39 40 42 44 45 46 48 49 47 44 53 57 61 65 71 68 64 65 61 53 52 52 53 53 55 56 57 57 58 59 60 61 62 62 63 64 64
38 37 37 38 40 40 43 45 46 48 45 50 55 59 61 63 66 65 63 64 65 51 51 50 50 51 52 53 53 55 56 57 58 59 60 61 63 63
34 34 34 37 36 38 40 42 45 47 46 45 51 53 55 60 63 64 64 69 65 56 50 49 48 48 49 49 49 50 52 53 54 56 57 58 60 61
32 32 32 33 33 35 38 40 44 47 47 46 48 52 54 57 59 63 62 60 64 57 49 49 49 50 49 48 48 49 49 49 50 51 51 52 54 56
31 31 31 31 32 33 35 34 37 40 43 44 47 49 51 55 58 58 58 58 60 63 55 52 50 49 49 49 47 47 47 48 48 48 48 47 47 49
28 28 29 31 33 33 32 31 32 33 38 40 45 46 45 41 40 41 47 52 57 57 56 54 52 53 51 48 50 46 46 47 47 48 48 47 46 47
24 25 26 28 29 31 32 32 31 30 31 35 32 33 33 32 34 34 39 48 51 46 50 53 54 53 53 53 48 46 44 45 45 46 46 46 46 46
22 24 24 26 27 27 29 30 30 32 32 31 29 29 29 31 31 33 37 40 44 36 41 44 41 41 40 41 42 42 43 44 45 45 46 45 45 44
22 24 23 24 27 26 25 25 26 27 30 31 30 29 30 32 32 33 34 36 38 33 33 35 34 34 34 36 40 40 40 41 41 42 43 44 43 44
23 24 25 24 29 29 23 23 23 24 29 32 32 32 32 33 33 33 29 30 33 31 31 29 33 33 33 33 34 38 38 38 39 39 40 40 40 41
22 23 28 27 29 28 22 21 20 22 24 26 28 28 30 30 32 31 30 27 27 26 31 28 32 33 33 32 32 33 33 36 37 38 38 39 39 39
21 21 22 28 29 28 27 23 22 23 23 24 25 25 26 28 29 30 31 30 27 27 31 30 31 30 32 32 32 32 32 32 33 34 36 37 38 38
20 21 23 28 27 28 25 26 26 23 22 21 21 22 23 24 26 28 30 32 32 30 31 31 29 29 29 30 30 31 31 31 32 31 32 34 35 36
24 26 28 28 27 24 26 25 22 20 19 18 18 20 23 25 26 26 27 30 32 32 32 32 30 30 30 27 27 27 28 30 30 30 30 30 30 31
23 22 22 25 22 21 22 22 20 20 19 18 18 20 23 23 23 25 23 24 26 27 31 31 31 30 28 28 29 28 29 26 29 29 30 29 30 31
21 20 18 18 18 18 19 20 19 19 18 18 18 18 20 22 22 24 23 22 22 22 24 28 30 30 28 28 26 26 28 29 30 30 29 28 29 29
19 16 14 14 15 15 15 15 17 17 18 19 17 18 18 19 20 22 22 20 20 22 23 24 25 25 26 28 30 25 26 27 30 31 29 27 26 29
16 15 13 12 13 14 14 14 14 16 18 17 16 15 16 18 18 18 18 18 19 21 22 23 22 21 17 17 26 31 24 26 26 27 27 27 25 26
15 13 12 12 12 12 12 12 13 13 13 13 13 13 13 15 15 15 16 14 16 18 19 20 20 20 17 17 20 26 30 24 24 24 25 26 26 29
13 12 12 11 10 10 9 9 10 10 9 9 10 11 10 13 13 14 14 13 14 16 14 15 19 22 25 26 21 20 26 30 28 24 23 22 24 26
9 10 11 9 8 7 7 7 7 7 6 6 6 7 8 11 11 12 12 11 13 13 14 17 20 21 21 20 19 20 23 23 29 29 29 26 22 19
7 7 8 6 6 5 6 6 5 5 4 4 4 5 5 7 11 12 12 11 12 12 13 12 15 17 17 20 18 18 20 23 26 23 23 28 29 29

GFSNE_sfc_temp_141.txt.gz
Temp
38 38 38 39 41 42 44 44 42 37 40 46 48 55 57 59 59 62 65 58 52 51 51 54 56 58 59 59 60 62 63 64 64 64 64 65 66 66
36 36 36 37 38 38 41 42 43 41 38 48 49 52 55 59 59 58 62 57 54 50 49 50 52 55 57 57 57 58 60 60 61 62 62 63 64 65
33 33 33 35 34 36 38 38 39 40 38 44 50 53 53 53 55 56 57 59 62 53 51 48 49 50 52 54 55 56 57 58 59 60 60 62 63 64
28 30 31 33 31 35 36 37 37 40 40 40 46 48 50 54 55 53 55 60 61 58 51 51 48 48 48 49 51 51 52 54 54 56 57 59 60 62
27 27 28 30 31 32 34 33 35 36 36 40 42 46 49 52 53 55 54 55 60 58 51 49 47 47 47 48 48 49 50 50 51 52 52 53 55 57
28 27 27 28 29 30 32 31 33 33 35 36 39 42 46 46 43 42 40 46 47 56 54 50 49 47 47 47 47 47 47 48 49 49 49 48 49 51
26 26 27 30 31 31 30 29 29 30 31 32 34 36 33 33 32 35 36 41 47 41 48 54 54 52 50 46 49 47 46 47 47 49 49 47 46 48
22 24 26 28 28 29 30 30 29 28 28 29 29 28 29 31 33 32 34 40 44 39 36 48 47 46 44 42 42 43 46 46 45 46 46 46 46 46
21 21 24 26 27 25 26 27 27 29 30 28 27 27 27 29 31 32 32 35 37 33 34 37 37 36 37 40 41 41 41 41 43 44 45 44 43 43
21 21 22 23 26 24 23 23 23 24 26 28 26 27 28 29 30 32 33 33 33 33 32 28 33 33 34 35 38 39 39 39 40 40 41 42 42 43
19 22 23 23 29 28 22 20 21 22 27 30 30 30 31 31 31 31 29 29 28 28 31 29 32 32 33 32 33 37 37 37 38 39 39 39 39 41
18 21 29 27 28 28 21 20 17 19 21 22 24 26 28 28 30 26 28 25 26 26 29 27 30 30 31 32 33 33 33 35 36 37 37 38 38 37
19 19 22 28 28 27 26 21 20 20 19 19 20 22 23 24 24 25 25 27 25 23 28 28 29 29 29 31 31 32 31 31 32 33 35 35 36 36
19 21 22 27 26 27 23 24 24 19 18 17 17 18 18 20 22 23 24 26 28 27 29 28 28 28 28 27 27 31 31 32 31 31 31 33 33 34
20 23 25 24 23 21 24 23 19 17 16 14 14 16 18 20 22 22 23 25 25 27 26 27 26 27 27 25 25 27 28 30 31 30 30 30 29 30
17 16 16 20 16 16 17 18 17 17 15 14 14 16 19 19 18 20 18 20 20 21 24 24 24 24 25 26 26 25 27 27 30 31 30 29 30 30
15 15 13 13 12 12 13 15 15 15 14 14 14 14 16 17 18 19 19 18 16 17 17 21 23 23 24 22 22 25 25 25 27 29 28 28 28 29
14 10 8 8 9 10 10 11 12 12 13 14 12 13 14 15 16 17 17 16 15 16 16 18 19 18 20 23 29 23 22 21 25 28 27 26 25 27
11 9 6 6 8 9 9 10 8 10 12 10 9 9 10 14 14 14 14 14 14 16 16 18 17 15 11 10 20 30 23 23 23 24 25 25 23 25
11 8 6 6 7 7 7 7 7 6 5 6 5 6 5 9 11 12 12 10 12 13 13 15 15 14 12 12 15 21 29 24 19 20 21 22 26 29
8 8 6 6 5 6 4 3 3 2 1 1 2 3 2 5 8 10 10 9 10 12 10 11 14 17 20 21 14 15 20 27 27 22 20 17 17 21
4 6 5 4 1 1 3 -2 2 -1 -1 0 -0 0 -0 3 5 7 9 8 10 10 10 13 15 16 15 15 11 11 15 19 26 28 28 25 18 14
-4 3 1 -4 -0 -0 2 -0 -1 -3 -2 -2 -1 -1 -3 -1 3 5 8 8 9 9 10 9 11 13 13 14 11 10 13 13 17 18 24 29 29 29

GFSNE_sfc_temp_147.txt.gz
Temp
28 30 30 30 31 32 33 34 31 28 31 39 40 46 47 48 49 49 49 51 50 50 49 50 52 52 53 55 57 59 61 63 64 64 64 65 65 66
29 28 28 29 30 32 32 35 34 31 28 36 38 41 44 48 49 49 49 51 50 49 48 49 49 50 50 52 54 55 57 59 61 62 62 63 63 64
27 28 28 30 29 30 31 33 31 31 28 32 36 38 39 40 47 49 50 50 51 49 48 47 47 47 47 48 50 52 53 55 56 58 60 60 62 63
26 27 28 30 28 29 30 28 29 30 30 28 33 35 37 40 42 42 48 51 48 49 47 46 46 46 46 46 46 48 49 50 51 53 55 57 59 60
28 26 28 28 26 27 30 28 28 31 29 29 29 34 34 35 35 41 43 43 47 47 45 45 44 43 43 43 43 44 45 46 47 48 49 51 53 56
27 27 27 26 26 26 28 27 28 27 28 27 27 28 30 32 32 32 34 38 39 41 41 44 43 43 42 42 42 42 42 44 45 47 45 45 47 50
25 26 27 29 29 28 27 25 25 25 26 25 25 25 25 25 25 28 31 34 37 32 34 40 40 40 39 40 40 40 41 41 42 42 44 44 44 45
20 22 25 26 25 26 27 27 26 23 22 22 22 21 22 23 24 24 28 30 32 32 29 36 37 35 37 38 39 38 39 39 40 40 40 40 39 41
13 15 22 24 22 19 21 22 22 25 26 22 20 20 21 22 22 24 26 31 28 26 27 31 33 33 34 37 38 37 37 38 38 38 38 38 38 38
12 13 11 18 23 19 16 15 14 15 21 22 21 21 22 24 22 23 24 27 30 26 23 23 31 30 33 33 37 37 37 37 37 37 37 37 37 37
12 18 17 18 27 24 15 13 12 13 19 24 25 25 25 26 25 22 20 20 22 23 20 20 27 27 31 32 32 35 36 36 36 36 35 36 36 36
13 16 26 24 26 25 15 13 10 11 12 13 15 17 20 19 22 18 19 15 16 14 17 16 22 22 26 31 31 30 31 34 35 36 35 35 35 33
6 13 17 24 25 23 21 16 14 12 12 12 13 13 15 15 16 17 17 16 13 12 17 17 19 18 22 25 28 27 27 29 29 31 34 35 34 33
6 8 15 21 21 21 17 18 17 11 11 10 10 11 11 12 13 15 16 16 13 12 16 16 14 14 15 22 21 25 26 28 27 27 29 33 33 33
11 17 18 17 16 13 17 15 10 8 7 6 6 8 11 13 13 14 16 15 15 16 16 15 14 14 11 18 18 19 20 24 25 25 26 28 28 29
9 7 8 13 7 7 8 8 7 7 6 5 4 6 11 13 12 13 12 12 11 11 15 15 15 14 7 9 18 15 17 17 20 21 24 26 28 28
6 6 5 6 5 6 6 6 6 6 4 5 4 5 7 11 12 13 13 12 9 9 9 13 15 16 12 6 14 14 13 15 17 17 20 21 23 25
7 2 1 2 3 4 3 3 3 3 4 5 4 4 4 7 10 12 11 10 9 10 10 11 11 11 13 13 21 12 12 13 15 15 17 17 19 23
4 2 -1 1 2 3 3 2 0 1 3 2 -0 -0 0 5 7 8 9 9 9 10 10 11 11 9 4 2 12 21 11 13 13 13 15 15 16 20
5 1 -1 1 2 1 1 -0 -2 -3 -2 -2 -3 -4 -6 1 3 4 6 6 7 9 9 10 9 9 6 4 4 10 20 13 11 11 13 17 20 27
4 2 -0 -0 1 1 -6 -9 -16 -10 -10 -13 -6 -6 -9 -4 -1 1 2 3 6 7 6 6 10 13 14 13 3 5 10 18 17 14 15 14 14 16
-1 1 0 -2 -5 -5 -12 -19 -14 -13 -8 -7 -10 -14 -14 -7 -3 -2 -1 1 5 6 7 9 11 11 10 8 4 3 6 10 16 19 20 19 14 12
-7 -3 -7 -10 -10 -10 -3 -13 -14 -16 -12 -10 -9 -7 -19 -10 -3 -2 -1 2 4 5 6 6 8 8 8 7 5 3 4 6 8 9 12 19 21 23

GFSNE_sfc_temp_150.txt.gz
Temp
29 29 28 29 30 31 32 33 31 27 29 36 34 41 41 42 44 45 47 49 48 48 48 49 51 52 52 53 53 54 57 59 61 63 64 65 65 66
29 28 29 30 30 31 31 34 32 29 26 33 34 37 40 42 43 44 45 47 48 47 47 47 47 48 49 50 50 50 52 55 57 59 61 62 63 64
28 28 29 30 29 29 32 30 29 29 26 31 34 37 37 36 37 40 44 47 50 47 46 45 44 44 45 46 47 48 49 51 53 55 57 60 62 63
27 28 28 30 28 29 31 29 28 31 28 25 31 31 32 35 35 37 41 46 46 46 44 44 44 43 43 43 43 43 44 46 48 50 52 55 58 60
26 26 27 27 26 28 29 28 28 30 29 27 27 30 31 32 31 34 37 39 44 44 42 43 43 42 42 42 42 42 43 43 44 45 45 46 48 51
27 27 27 25 26 27 27 26 26 26 27 26 26 26 28 29 30 28 28 35 34 37 38 39 40 41 41 40 41 41 41 41 42 42 41 40 41 44
25 26 27 27 28 28 26 24 24 23 23 23 23 24 24 23 22 25 27 30 31 27 29 35 37 37 38 39 39 40 39 40 40 40 40 40 39 40
21 22 25 25 23 25 26 25 25 21 20 19 20 19 21 21 22 23 25 29 25 28 25 32 34 34 36 37 39 38 39 39 39 39 39 39 39 39
14 16 21 23 21 19 20 20 20 23 24 20 18 17 19 20 20 22 22 23 25 22 23 28 30 31 33 34 36 37 38 38 38 38 37 37 37 38
14 14 12 16 22 17 15 13 12 13 19 21 19 19 21 22 20 21 22 22 28 23 19 19 26 27 32 31 34 35 34 36 37 37 37 36 36 37
13 17 15 15 26 23 13 11 10 11 16 22 23 23 22 24 23 20 17 17 19 19 18 16 23 22 30 29 29 33 33 32 34 35 36 36 35 35
15 14 24 23 25 23 13 12 8 8 8 10 13 15 16 16 20 16 16 13 13 13 15 14 18 19 24 30 29 28 29 31 31 32 34 35 35 32
10 11 13 24 23 21 19 13 12 9 8 9 11 13 14 13 13 15 15 14 11 11 15 15 16 16 18 23 26 25 25 25 26 27 30 32 34 34
8 10 13 20 20 19 16 16 14 8 7 7 7 7 10 11 12 13 14 14 14 14 15 15 13 14 16 19 17 20 21 25 23 22 24 29 31 32
12 16 16 15 14 11 16 13 7 6 4 3 3 4 8 11 13 14 15 15 15 15 16 15 14 14 15 16 14 14 15 19 21 19 21 24 26 27
8 6 7 12 7 7 7 7 6 6 5 3 4 6 10 11 12 13 12 12 11 12 15 15 15 15 14 15 14 12 14 13 17 18 18 22 25 28
7 6 5 5 5 5 5 5 5 6 5 5 4 5 7 10 11 14 13 12 9 9 9 13 15 16 16 13 12 12 12 13 15 15 17 17 22 25
7 2 0 -0 3 4 3 3 3 3 4 5 3 4 4 7 9 11 12 11 10 10 10 12 12 12 13 15 19 12 12 12 14 15 16 15 17 22
3 0 -3 -2 2 3 2 2 0 1 3 2 -0 -0 1 5 7 7 8 9 9 10 11 12 11 9 5 2 12 19 11 12 12 13 16 16 15 19
4 1 -1 1 2 1 -0 -1 -2 -3 -3 -2 -3 -3 -5 2 3 4 5 5 8 9 9 11 10 10 7 5 6 11 17 12 12 12 13 17 20 24
4 2 0 1 1 0 -6 -8 -10 -8 -8 -9 -6 -6 -10 -2 0 2 2 1 5 8 6 7 10 12 14 13 6 7 11 17 17 14 15 14 14 16
1 1 1 -1 -2 -2 -7 -12 -7 -8 -6 -5 -7 -9 -10 -4 -2 -1 0 2 5 7 7 10 12 12 11 8 5 5 8 11 16 18 19 18 14 10
-3 -0 -3 -5 -6 -5 -2 -7 -8 -10 -8 -7 -7 -6 -10 -6 -2 -1 0 2 5 5 6 7 9 10 9 8 5 5 5 7 10 10 14 18 20 20